Observation data for Hackberry on 08/20/2019      Previous  Date  Next       Current Mesonet Observations  Soil Data  Daily Summary Page  Observations in Plain Language
KHA3 200500Z 16015KT 31/18 A2998 RMK A01 T03130178  RH  045%=      5-min Rain = 0
KHA3 200501Z 16013KT 31/18 A2998 RMK A01 T03130178  RH  045%=      5-min Rain = 0
KHA3 200502Z 16014KT 31/18 A2998 RMK A01 T03130179  RH  045%=      5-min Rain = 0
KHA3 200503Z 16014KT 31/18 A2998 RMK A01 T03130179  RH  045%=      5-min Rain = 0
KHA3 200504Z 16013KT 31/18 A2998 RMK A01 T03130179  RH  045%=      5-min Rain = 0
KHA3 200505Z 16015KT 31/18 A2998 RMK A01 T03130179  RH  045%=      5-min Rain = 0
KHA3 200506Z 16013KT 31/18 A2998 RMK A01 T03130180  RH  045%=      5-min Rain = 0
KHA3 200507Z 16013KT 31/18 A2998 RMK A01 T03120180  RH  045%=      5-min Rain = 0
KHA3 200508Z 16014KT 31/18 A2998 RMK A01 T03120179  RH  045%=      5-min Rain = 0
KHA3 200509Z 16014G19KT 31/18 A2998 RMK A01 T03120180  RH  045%=      5-min Rain = 0
KHA3 200510Z 16014KT 31/18 A2998 RMK A01 T03110179  RH  045%=      5-min Rain = 0
KHA3 200511Z 16013KT 31/18 A2998 RMK A01 T03110179  RH  045%=      5-min Rain = 0
KHA3 200512Z 16014KT 31/18 A2998 RMK A01 T03110180  RH  045%=      5-min Rain = 0
KHA3 200513Z 16015KT 31/18 A2998 RMK A01 T03110180  RH  046%=      5-min Rain = 0
KHA3 200514Z 16015KT 31/18 A2998 RMK A01 T03110180  RH  045%=      5-min Rain = 0
KHA3 200515Z 16015KT 31/18 A2998 RMK A01 T03120180  RH  045%=      5-min Rain = 0
KHA3 200516Z 16014KT 31/18 A2998 RMK A01 T03120180  RH  046%=      5-min Rain = 0
KHA3 200517Z 16014KT 31/18 A2998 RMK A01 T03110181  RH  046%=      5-min Rain = 0
KHA3 200518Z 16014KT 31/18 A2998 RMK A01 T03110181  RH  046%=      5-min Rain = 0
KHA3 200519Z 16013KT 31/18 A2998 RMK A01 T03100181  RH  046%=      5-min Rain = 0
KHA3 200520Z 16015G20KT 31/18 A2998 RMK A01 T03100181  RH  046%=      5-min Rain = 0
KHA3 200521Z 15015KT 31/18 A2998 RMK A01 T03100181  RH  046%=      5-min Rain = 0
KHA3 200522Z 16015KT 31/18 A2998 RMK A01 T03100180  RH  046%=      5-min Rain = 0
KHA3 200523Z 16014KT 31/18 A2998 RMK A01 T03100181  RH  046%=      5-min Rain = 0
KHA3 200524Z 16014KT 31/18 A2998 RMK A01 T03100181  RH  046%=      5-min Rain = 0
KHA3 200525Z 16016KT 31/18 A2998 RMK A01 T03100181  RH  046%=      5-min Rain = 0
KHA3 200526Z 16013KT 31/18 A2998 RMK A01 T03100181  RH  046%=      5-min Rain = 0
KHA3 200527Z 16013KT 31/18 A2999 RMK A01 T03100182  RH  046%=      5-min Rain = 0
KHA3 200528Z 16014KT 31/18 A2998 RMK A01 T03090182  RH  047%=      5-min Rain = 0
KHA3 200529Z 16013KT 31/18 A2999 RMK A01 T03090181  RH  047%=      5-min Rain = 0
KHA3 200530Z 16014KT 31/18 A2999 RMK A01 T03090182  RH  047%=      5-min Rain = 0
KHA3 200531Z 16014KT 31/18 A2999 RMK A01 T03090182  RH  047%=      5-min Rain = 0
KHA3 200532Z 16013KT 31/18 A2999 RMK A01 T03090182  RH  047%=      5-min Rain = 0
KHA3 200533Z 16013KT 31/18 A2999 RMK A01 T03090182  RH  047%=      5-min Rain = 0
KHA3 200534Z 16011KT 31/18 A2999 RMK A01 T03090183  RH  047%=      5-min Rain = 0
KHA3 200535Z 16013KT 31/18 A2998 RMK A01 T03070183  RH  047%=      5-min Rain = 0
KHA3 200536Z 16016KT 31/18 A2998 RMK A01 T03070182  RH  047%=      5-min Rain = 0
KHA3 200537Z 16014KT 31/18 A2998 RMK A01 T03070181  RH  047%=      5-min Rain = 0
KHA3 200538Z 16015KT 31/18 A2998 RMK A01 T03080181  RH  047%=      5-min Rain = 0
KHA3 200539Z 16015KT 31/18 A2998 RMK A01 T03080182  RH  047%=      5-min Rain = 0
KHA3 200540Z 16016KT 31/18 A2998 RMK A01 T03080182  RH  047%=      5-min Rain = 0
KHA3 200541Z 16014KT 31/18 A2999 RMK A01 T03080182  RH  047%=      5-min Rain = 0
KHA3 200542Z 16013KT 31/18 A2999 RMK A01 T03080183  RH  047%=      5-min Rain = 0
KHA3 200543Z 16013KT 31/18 A2999 RMK A01 T03070182  RH  048%=      5-min Rain = 0
KHA3 200544Z 16014KT 31/18 A2999 RMK A01 T03060182  RH  048%=      5-min Rain = 0
KHA3 200545Z 16015KT 31/18 A2999 RMK A01 T03060182  RH  048%=      5-min Rain = 0
KHA3 200546Z 16012KT 31/18 A2999 RMK A01 T03060182  RH  048%=      5-min Rain = 0
KHA3 200547Z 15012KT 31/18 A2999 RMK A01 T03060183  RH  048%=      5-min Rain = 0
KHA3 200548Z 16012KT 31/18 A2999 RMK A01 T03060183  RH  048%=      5-min Rain = 0
KHA3 200549Z 16013KT 31/18 A2999 RMK A01 T03050183  RH  048%=      5-min Rain = 0
KHA3 200550Z 15012KT 31/18 A2999 RMK A01 T03050183  RH  048%=      5-min Rain = 0
KHA3 200551Z 15011KT 30/18 A2999 RMK A01 T03040183  RH  048%=      5-min Rain = 0
KHA3 200552Z 15014KT 30/18 A2999 RMK A01 T03040183  RH  048%=      5-min Rain = 0
KHA3 200553Z 15014KT 30/18 A2999 RMK A01 T03040182  RH  048%=      5-min Rain = 0
KHA3 200554Z 15013KT 31/18 A2999 RMK A01 T03050182  RH  048%=      5-min Rain = 0
KHA3 200555Z 15012KT 31/18 A2999 RMK A01 T03050183  RH  048%=      5-min Rain = 0
KHA3 200556Z 15012KT 31/18 A2999 RMK A01 T03050183  RH  048%=      5-min Rain = 0
KHA3 200557Z 15012KT 31/18 A2999 RMK A01 T03050184  RH  048%=      5-min Rain = 0
KHA3 200558Z 15012KT 30/18 A2999 RMK A01 T03040183  RH  048%=      5-min Rain = 0
KHA3 200559Z 15014KT 30/18 A2999 RMK A01 T03040183  RH  049%=      5-min Rain = 0
KHA3 200600Z 15014KT 30/18 A2999 RMK A01 T03040183  RH  048%=      5-min Rain = 0
KHA3 200601Z 15013KT 30/18 A2999 RMK A01 T03040183  RH  048%=      5-min Rain = 0
KHA3 200602Z 15013KT 30/18 A2999 RMK A01 T03040183  RH  048%=      5-min Rain = 0
KHA3 200603Z 15016KT 30/18 A2999 RMK A01 T03040183  RH  048%=      5-min Rain = 0
KHA3 200604Z 15013KT 30/18 A2999 RMK A01 T03040183  RH  048%=      5-min Rain = 0
KHA3 200605Z 15013KT 31/18 A2999 RMK A01 T03050183  RH  048%=      5-min Rain = 0
KHA3 200606Z 15014KT 30/18 A2999 RMK A01 T03040183  RH  048%=      5-min Rain = 0
KHA3 200607Z 15016KT 30/18 A2999 RMK A01 T03040183  RH  048%=      5-min Rain = 0
KHA3 200608Z 14014KT 30/18 A2999 RMK A01 T03040183  RH  048%=      5-min Rain = 0
KHA3 200609Z 15014KT 30/18 A2999 RMK A01 T03040183  RH  048%=      5-min Rain = 0
KHA3 200610Z 15013KT 30/18 A2999 RMK A01 T03040184  RH  049%=      5-min Rain = 0
KHA3 200611Z 15014KT 30/18 A2999 RMK A01 T03040184  RH  049%=      5-min Rain = 0
KHA3 200612Z 15014KT 30/18 A2999 RMK A01 T03040183  RH  049%=      5-min Rain = 0
KHA3 200613Z 15013KT 30/18 A2999 RMK A01 T03040184  RH  049%=      5-min Rain = 0
KHA3 200614Z 15013KT 30/18 A2999 RMK A01 T03040184  RH  049%=      5-min Rain = 0
KHA3 200615Z 15012KT 30/18 A2999 RMK A01 T03030184  RH  049%=      5-min Rain = 0
KHA3 200616Z 15013KT 30/18 A2999 RMK A01 T03030184  RH  049%=      5-min Rain = 0
KHA3 200617Z 15013KT 30/18 A2999 RMK A01 T03030184  RH  049%=      5-min Rain = 0
KHA3 200618Z 15014KT 30/18 A2999 RMK A01 T03020184  RH  049%=      5-min Rain = 0
KHA3 200619Z 15012KT 30/18 A2999 RMK A01 T03020184  RH  049%=      5-min Rain = 0
KHA3 200620Z 15013G18KT 30/18 A2999 RMK A01 T03020183  RH  049%=      5-min Rain = 0
KHA3 200621Z 16012G17KT 30/18 A2999 RMK A01 T03020184  RH  049%=      5-min Rain = 0
KHA3 200622Z 15013KT 30/18 A2999 RMK A01 T03010184  RH  050%=      5-min Rain = 0
KHA3 200623Z 15012KT 30/18 A2999 RMK A01 T03010184  RH  049%=      5-min Rain = 0
KHA3 200624Z 15010KT 30/18 A2999 RMK A01 T03010184  RH  050%=      5-min Rain = 0
KHA3 200625Z 15011KT 30/19 A2999 RMK A01 T03000185  RH  050%=      5-min Rain = 0
KHA3 200626Z 15012KT 30/19 A2999 RMK A01 T03000185  RH  050%=      5-min Rain = 0
KHA3 200627Z 15012KT 30/19 A2999 RMK A01 T03000185  RH  050%=      5-min Rain = 0
KHA3 200628Z 15011KT 30/19 A2999 RMK A01 T03000185  RH  050%=      5-min Rain = 0
KHA3 200629Z 15012KT 30/19 A2999 RMK A01 T02990185  RH  050%=      5-min Rain = 0
KHA3 200630Z 15010KT 30/19 A2999 RMK A01 T02990185  RH  050%=      5-min Rain = 0
KHA3 200631Z 15010KT 30/19 A2999 RMK A01 T02990185  RH  050%=      5-min Rain = 0
KHA3 200632Z 15011KT 30/19 A2999 RMK A01 T02990185  RH  050%=      5-min Rain = 0
KHA3 200633Z 15012KT 30/19 A2999 RMK A01 T02990185  RH  050%=      5-min Rain = 0
KHA3 200634Z 15012KT 30/18 A2999 RMK A01 T02990184  RH  050%=      5-min Rain = 0
KHA3 200635Z 15011KT 30/18 A2999 RMK A01 T02990184  RH  050%=      5-min Rain = 0
KHA3 200636Z 15012KT 30/18 A2999 RMK A01 T02990184  RH  050%=      5-min Rain = 0
KHA3 200637Z 15010KT 30/18 A2999 RMK A01 T02990184  RH  050%=      5-min Rain = 0
KHA3 200638Z 15011KT 30/19 A2999 RMK A01 T02990185  RH  050%=      5-min Rain = 0
KHA3 200639Z 15010KT 30/19 A2999 RMK A01 T02990185  RH  050%=      5-min Rain = 0
KHA3 200640Z 15011KT 30/18 A2999 RMK A01 T02980184  RH  051%=      5-min Rain = 0
KHA3 200641Z 15011KT 30/18 A2999 RMK A01 T02980184  RH  051%=      5-min Rain = 0
KHA3 200642Z 15011KT 30/19 A30 RMK A01 T02980185  RH  051%=      5-min Rain = 0
KHA3 200643Z 16011KT 30/18 A30 RMK A01 T02980184  RH  050%=      5-min Rain = 0
KHA3 200644Z 15011KT 30/18 A30 RMK A01 T02980184  RH  051%=      5-min Rain = 0
KHA3 200645Z 15011KT 30/18 A30 RMK A01 T02980184  RH  050%=      5-min Rain = 0
KHA3 200646Z 16011KT 30/18 A30 RMK A01 T02980184  RH  050%=      5-min Rain = 0
KHA3 200647Z 16011KT 30/18 A30 RMK A01 T02980184  RH  050%=      5-min Rain = 0
KHA3 200648Z 15010KT 30/18 A30 RMK A01 T02980184  RH  050%=      5-min Rain = 0
KHA3 200649Z 15011KT 30/18 A30 RMK A01 T02980184  RH  050%=      5-min Rain = 0
KHA3 200650Z 15011KT 30/18 A30 RMK A01 T02980184  RH  050%=      5-min Rain = 0
KHA3 200651Z 15011KT 30/18 A30 RMK A01 T02980184  RH  051%=      5-min Rain = 0
KHA3 200652Z 16010KT 30/19 A30 RMK A01 T02980185  RH  051%=      5-min Rain = 0
KHA3 200653Z 15012KT 30/18 A2999 RMK A01 T02980184  RH  051%=      5-min Rain = 0
KHA3 200654Z 15011KT 30/18 A2999 RMK A01 T02970183  RH  050%=      5-min Rain = 0
KHA3 200655Z 16011KT 30/18 A2999 RMK A01 T02970183  RH  050%=      5-min Rain = 0
KHA3 200656Z 16011KT 30/18 A2999 RMK A01 T02970184  RH  050%=      5-min Rain = 0
KHA3 200657Z 16012KT 30/18 A2999 RMK A01 T02980184  RH  050%=      5-min Rain = 0
KHA3 200658Z 16011KT 30/18 A2999 RMK A01 T02980184  RH  050%=      5-min Rain = 0
KHA3 200659Z 16012KT 30/18 A2999 RMK A01 T02980184  RH  050%=      5-min Rain = 0
KHA3 200700Z 16010KT 30/18 A2999 RMK A01 T02970184  RH  051%=      5-min Rain = 0
KHA3 200701Z 16013KT 30/18 A2999 RMK A01 T02970184  RH  051%=      5-min Rain = 0
KHA3 200702Z 16012KT 30/18 A2999 RMK A01 T02970183  RH  050%=      5-min Rain = 0
KHA3 200703Z 16011KT 30/18 A2999 RMK A01 T02970184  RH  051%=      5-min Rain = 0
KHA3 200704Z 15013KT 30/18 A2999 RMK A01 T02970183  RH  050%=      5-min Rain = 0
KHA3 200705Z 15010KT 30/18 A2999 RMK A01 T02970183  RH  050%=      5-min Rain = 0
KHA3 200706Z 15011KT 30/18 A2999 RMK A01 T02970184  RH  051%=      5-min Rain = 0
KHA3 200707Z 15013KT 30/18 A2999 RMK A01 T02970184  RH  051%=      5-min Rain = 0
KHA3 200708Z 15013G18KT 30/18 A2999 RMK A01 T02970183  RH  051%=      5-min Rain = 0
KHA3 200709Z 15013KT 30/18 A2999 RMK A01 T02970183  RH  050%=      5-min Rain = 0
KHA3 200710Z 15013KT 30/18 A2999 RMK A01 T02980183  RH  050%=      5-min Rain = 0
KHA3 200711Z 15012KT 30/18 A2999 RMK A01 T02980183  RH  050%=      5-min Rain = 0
KHA3 200712Z 15014KT 30/18 A2999 RMK A01 T02980183  RH  050%=      5-min Rain = 0
KHA3 200713Z 16012KT 30/18 A2999 RMK A01 T02980184  RH  050%=      5-min Rain = 0
KHA3 200714Z 15014KT 30/18 A2999 RMK A01 T02970183  RH  050%=      5-min Rain = 0
KHA3 200715Z 15012KT 30/18 A2999 RMK A01 T02970183  RH  050%=      5-min Rain = 0
KHA3 200716Z 15013KT 30/18 A2999 RMK A01 T02970183  RH  050%=      5-min Rain = 0
KHA3 200717Z 15013KT 30/18 A2999 RMK A01 T02970183  RH  050%=      5-min Rain = 0
KHA3 200718Z 15011KT 30/18 A2999 RMK A01 T02970183  RH  050%=      5-min Rain = 0
KHA3 200719Z 16013KT 30/18 A2999 RMK A01 T02970183  RH  051%=      5-min Rain = 0
KHA3 200720Z 15011KT 30/18 A2999 RMK A01 T02970183  RH  051%=      5-min Rain = 0
KHA3 200721Z 15013KT 30/18 A2999 RMK A01 T02960183  RH  051%=      5-min Rain = 0
KHA3 200722Z 15012KT 30/18 A2999 RMK A01 T02960183  RH  051%=      5-min Rain = 0
KHA3 200723Z 15011KT 30/18 A2999 RMK A01 T02960183  RH  051%=      5-min Rain = 0
KHA3 200724Z 15011KT 30/18 A30 RMK A01 T02960184  RH  051%=      5-min Rain = 0
KHA3 200725Z 15012KT 30/18 A30 RMK A01 T02950183  RH  051%=      5-min Rain = 0
KHA3 200726Z 15012KT 30/18 A30 RMK A01 T02950183  RH  051%=      5-min Rain = 0
KHA3 200727Z 15010KT 30/18 A30 RMK A01 T02950183  RH  051%=      5-min Rain = 0
KHA3 200728Z 15010KT 30/18 A30 RMK A01 T02950183  RH  051%=      5-min Rain = 0
KHA3 200729Z 16012KT 29/18 A2999 RMK A01 T02940183  RH  051%=      5-min Rain = 0
KHA3 200730Z 15010KT 29/18 A2999 RMK A01 T02940183  RH  051%=      5-min Rain = 0
KHA3 200731Z 15012KT 29/18 A2999 RMK A01 T02940183  RH  051%=      5-min Rain = 0
KHA3 200732Z 15011KT 29/18 A2999 RMK A01 T02940183  RH  051%=      5-min Rain = 0
KHA3 200733Z 16012KT 29/18 A2999 RMK A01 T02940183  RH  051%=      5-min Rain = 0
KHA3 200734Z 15012KT 29/18 A2999 RMK A01 T02940182  RH  051%=      5-min Rain = 0
KHA3 200735Z 15010KT 29/18 A2999 RMK A01 T02940183  RH  051%=      5-min Rain = 0
KHA3 200736Z 15012KT 29/18 A2999 RMK A01 T02930183  RH  052%=      5-min Rain = 0
KHA3 200737Z 15012KT 29/18 A2999 RMK A01 T02930182  RH  051%=      5-min Rain = 0
KHA3 200738Z 16010KT 29/18 A2999 RMK A01 T02930182  RH  051%=      5-min Rain = 0
KHA3 200739Z 16012KT 29/18 A2999 RMK A01 T02940183  RH  051%=      5-min Rain = 0
KHA3 200740Z 16010KT 29/18 A2999 RMK A01 T02930183  RH  051%=      5-min Rain = 0
KHA3 200741Z 15010KT 29/18 A2999 RMK A01 T02930183  RH  052%=      5-min Rain = 0
KHA3 200742Z 16010KT 29/18 A2999 RMK A01 T02930183  RH  052%=      5-min Rain = 0
KHA3 200743Z 16010KT 29/18 A2999 RMK A01 T02920183  RH  052%=      5-min Rain = 0
KHA3 200744Z 16010KT 29/18 A2999 RMK A01 T02920184  RH  052%=      5-min Rain = 0
KHA3 200745Z 16011KT 29/18 A2999 RMK A01 T02910183  RH  052%=      5-min Rain = 0
KHA3 200746Z 16011KT 29/18 A2999 RMK A01 T02920182  RH  052%=      5-min Rain = 0
KHA3 200747Z 16011KT 29/18 A2999 RMK A01 T02920182  RH  052%=      5-min Rain = 0
KHA3 200748Z 16011KT 29/18 A2999 RMK A01 T02920182  RH  052%=      5-min Rain = 0
KHA3 200749Z 16011KT 29/18 A2999 RMK A01 T02920183  RH  052%=      5-min Rain = 0
KHA3 200750Z 16012KT 29/18 A2999 RMK A01 T02910183  RH  052%=      5-min Rain = 0
KHA3 200751Z 16011KT 29/18 A2999 RMK A01 T02910182  RH  052%=      5-min Rain = 0
KHA3 200752Z 16012KT 29/18 A2999 RMK A01 T02910182  RH  052%=      5-min Rain = 0
KHA3 200753Z 16012KT 29/18 A2999 RMK A01 T02910183  RH  052%=      5-min Rain = 0
KHA3 200754Z 16010KT 29/18 A2999 RMK A01 T02910183  RH  052%=      5-min Rain = 0
KHA3 200755Z 16012KT 29/18 A2999 RMK A01 T02910183  RH  052%=      5-min Rain = 0
KHA3 200756Z 17011KT 29/18 A2999 RMK A01 T02900182  RH  052%=      5-min Rain = 0
KHA3 200757Z 17011KT 29/18 A2999 RMK A01 T02910183  RH  052%=      5-min Rain = 0
KHA3 200758Z 17012G17KT 29/18 A2999 RMK A01 T02900183  RH  052%=      5-min Rain = 0
KHA3 200759Z 17011KT 29/18 A2999 RMK A01 T02900182  RH  052%=      5-min Rain = 0
KHA3 200800Z 17010KT 29/18 A2999 RMK A01 T02900183  RH  052%=      5-min Rain = 0
KHA3 200801Z 17011KT 29/18 A2999 RMK A01 T02900183  RH  053%=      5-min Rain = 0
KHA3 200802Z 17012KT 29/18 A2999 RMK A01 T02890183  RH  053%=      5-min Rain = 0
KHA3 200803Z 17011KT 29/18 A2999 RMK A01 T02890182  RH  053%=      5-min Rain = 0
KHA3 200804Z 17011KT 29/18 A2999 RMK A01 T02890183  RH  053%=      5-min Rain = 0
KHA3 200805Z 17011KT 29/18 A2999 RMK A01 T02880182  RH  053%=      5-min Rain = 0
KHA3 200806Z 17012KT 29/18 A2999 RMK A01 T02880183  RH  053%=      5-min Rain = 0
KHA3 200807Z 17011KT 29/18 A2999 RMK A01 T02880182  RH  053%=      5-min Rain = 0
KHA3 200808Z 17011KT 29/18 A2999 RMK A01 T02880183  RH  053%=      5-min Rain = 0
KHA3 200809Z 17010KT 29/18 A2999 RMK A01 T02870183  RH  053%=      5-min Rain = 0
KHA3 200810Z 17011KT 29/18 A2999 RMK A01 T02870182  RH  053%=      5-min Rain = 0
KHA3 200811Z 17009KT 29/18 A2999 RMK A01 T02870183  RH  053%=      5-min Rain = 0
KHA3 200812Z 17011KT 29/18 A2999 RMK A01 T02860183  RH  054%=      5-min Rain = 0
KHA3 200813Z 17010KT 29/18 A2999 RMK A01 T02860183  RH  054%=      5-min Rain = 0
KHA3 200814Z 17011KT 29/18 A2999 RMK A01 T02850182  RH  054%=      5-min Rain = 0
KHA3 200815Z 17011KT 29/18 A2999 RMK A01 T02860183  RH  054%=      5-min Rain = 0
KHA3 200816Z 17010KT 29/18 A2999 RMK A01 T02850183  RH  054%=      5-min Rain = 0
KHA3 200817Z 17011KT 29/18 A2999 RMK A01 T02850183  RH  054%=      5-min Rain = 0
KHA3 200818Z 17009KT 28/18 A2999 RMK A01 T02840183  RH  054%=      5-min Rain = 0
KHA3 200819Z 17010KT 28/18 A2999 RMK A01 T02840183  RH  054%=      5-min Rain = 0
KHA3 200820Z 17011KT 28/18 A2999 RMK A01 T02840183  RH  054%=      5-min Rain = 0
KHA3 200821Z 17010KT 28/18 A2999 RMK A01 T02840183  RH  054%=      5-min Rain = 0
KHA3 200822Z 17010KT 28/18 A2999 RMK A01 T02830183  RH  055%=      5-min Rain = 0
KHA3 200823Z 16011KT 28/18 A2999 RMK A01 T02830183  RH  054%=      5-min Rain = 0
KHA3 200824Z 16010KT 28/18 A2999 RMK A01 T02830182  RH  054%=      5-min Rain = 0
KHA3 200825Z 16011KT 28/18 A2999 RMK A01 T02830182  RH  054%=      5-min Rain = 0
KHA3 200826Z 17009KT 28/18 A2999 RMK A01 T02840182  RH  054%=      5-min Rain = 0
KHA3 200827Z 16010KT 28/18 A2999 RMK A01 T02840183  RH  054%=      5-min Rain = 0
KHA3 200828Z 17011KT 28/18 A2999 RMK A01 T02830183  RH  054%=      5-min Rain = 0
KHA3 200829Z 17010KT 28/18 A2999 RMK A01 T02830183  RH  055%=      5-min Rain = 0
KHA3 200830Z 17010KT 28/18 A2999 RMK A01 T02830183  RH  055%=      5-min Rain = 0
KHA3 200831Z 17011KT 28/18 A2999 RMK A01 T02820183  RH  055%=      5-min Rain = 0
KHA3 200832Z 17011KT 28/18 A2999 RMK A01 T02820182  RH  055%=      5-min Rain = 0
KHA3 200833Z 17010KT 28/18 A2999 RMK A01 T02820182  RH  055%=      5-min Rain = 0
KHA3 200834Z 17011KT 28/18 A2999 RMK A01 T02820183  RH  055%=      5-min Rain = 0
KHA3 200835Z 17011KT 28/18 A2999 RMK A01 T02820183  RH  055%=      5-min Rain = 0
KHA3 200836Z 17010KT 28/18 A2999 RMK A01 T02820183  RH  055%=      5-min Rain = 0
KHA3 200837Z 17011KT 28/18 A2999 RMK A01 T02820183  RH  055%=      5-min Rain = 0
KHA3 200838Z 17011KT 28/18 A2999 RMK A01 T02830183  RH  055%=      5-min Rain = 0
KHA3 200839Z 17011KT 28/18 A2999 RMK A01 T02830182  RH  055%=      5-min Rain = 0
KHA3 200840Z 17011KT 28/18 A2999 RMK A01 T02820182  RH  055%=      5-min Rain = 0
KHA3 200841Z 17011KT 28/18 A2999 RMK A01 T02820182  RH  055%=      5-min Rain = 0
KHA3 200842Z 17011KT 28/18 A2999 RMK A01 T02820183  RH  055%=      5-min Rain = 0
KHA3 200843Z 17010KT 28/18 A2999 RMK A01 T02820183  RH  055%=      5-min Rain = 0
KHA3 200844Z 17011KT 28/18 A2999 RMK A01 T02810183  RH  055%=      5-min Rain = 0
KHA3 200845Z 17010KT 28/18 A2999 RMK A01 T02820183  RH  055%=      5-min Rain = 0
KHA3 200846Z 17011KT 28/18 A2999 RMK A01 T02810183  RH  055%=      5-min Rain = 0
KHA3 200847Z 17011KT 28/18 A2999 RMK A01 T02810182  RH  055%=      5-min Rain = 0
KHA3 200848Z 17011KT 28/18 A2999 RMK A01 T02820182  RH  055%=      5-min Rain = 0
KHA3 200849Z 17011KT 28/18 A2999 RMK A01 T02820183  RH  055%=      5-min Rain = 0
KHA3 200850Z 17011KT 28/18 A2999 RMK A01 T02820182  RH  055%=      5-min Rain = 0
KHA3 200851Z 17011KT 28/18 A2999 RMK A01 T02820183  RH  055%=      5-min Rain = 0
KHA3 200852Z 16011KT 28/18 A2999 RMK A01 T02820182  RH  055%=      5-min Rain = 0
KHA3 200853Z 16010KT 28/18 A2999 RMK A01 T02820182  RH  055%=      5-min Rain = 0
KHA3 200854Z 16011KT 28/18 A2999 RMK A01 T02820183  RH  055%=      5-min Rain = 0
KHA3 200855Z 17011KT 28/18 A2999 RMK A01 T02820182  RH  055%=      5-min Rain = 0
KHA3 200856Z 17010KT 28/18 A2999 RMK A01 T02820182  RH  055%=      5-min Rain = 0
KHA3 200857Z 17010KT 28/18 A2999 RMK A01 T02810183  RH  055%=      5-min Rain = 0
KHA3 200858Z 17011KT 28/18 A2999 RMK A01 T02810183  RH  055%=      5-min Rain = 0
KHA3 200859Z 17010KT 28/18 A2999 RMK A01 T02810183  RH  055%=      5-min Rain = 0
KHA3 200900Z 17011KT 28/18 A2999 RMK A01 T02810182  RH  055%=      5-min Rain = 0
KHA3 200901Z 17010KT 28/18 A2999 RMK A01 T02810182  RH  055%=      5-min Rain = 0
KHA3 200902Z 16010KT 28/18 A2999 RMK A01 T02800182  RH  055%=      5-min Rain = 0
KHA3 200903Z 17009KT 28/18 A30 RMK A01 T02800183  RH  055%=      5-min Rain = 0
KHA3 200904Z 17009KT 28/18 A30 RMK A01 T02800183  RH  056%=      5-min Rain = 0
KHA3 200905Z 17009KT 28/18 A30 RMK A01 T02790183  RH  056%=      5-min Rain = 0
KHA3 200906Z 17010KT 28/18 A30 RMK A01 T02790183  RH  056%=      5-min Rain = 0
KHA3 200907Z 17010KT 28/18 A30 RMK A01 T02790183  RH  056%=      5-min Rain = 0
KHA3 200908Z 17010KT 28/18 A2999 RMK A01 T02780183  RH  056%=      5-min Rain = 0
KHA3 200909Z 17010KT 28/18 A2999 RMK A01 T02780183  RH  056%=      5-min Rain = 0
KHA3 200910Z 17010KT 28/18 A2999 RMK A01 T02780182  RH  056%=      5-min Rain = 0
KHA3 200911Z 17011KT 28/18 A2999 RMK A01 T02780183  RH  056%=      5-min Rain = 0
KHA3 200912Z 17011KT 28/18 A2999 RMK A01 T02780183  RH  056%=      5-min Rain = 0
KHA3 200913Z 17010KT 28/18 A2999 RMK A01 T02790183  RH  056%=      5-min Rain = 0
KHA3 200914Z 17010KT 28/18 A2999 RMK A01 T02780183  RH  056%=      5-min Rain = 0
KHA3 200915Z 18010KT 28/18 A2999 RMK A01 T02780183  RH  056%=      5-min Rain = 0
KHA3 200916Z 18011KT 28/18 A2999 RMK A01 T02770182  RH  056%=      5-min Rain = 0
KHA3 200917Z 18011KT 28/18 A2999 RMK A01 T02770182  RH  056%=      5-min Rain = 0
KHA3 200918Z 18010KT 28/18 A2999 RMK A01 T02780182  RH  056%=      5-min Rain = 0
KHA3 200919Z 18011KT 28/18 A2999 RMK A01 T02780182  RH  056%=      5-min Rain = 0
KHA3 200920Z 18011KT 28/18 A2999 RMK A01 T02780182  RH  056%=      5-min Rain = 0
KHA3 200921Z 18011KT 28/18 A2999 RMK A01 T02780182  RH  056%=      5-min Rain = 0
KHA3 200922Z 18010KT 28/18 A2999 RMK A01 T02780183  RH  056%=      5-min Rain = 0
KHA3 200923Z 17011KT 28/18 A2999 RMK A01 T02770183  RH  056%=      5-min Rain = 0
KHA3 200924Z 17011KT 28/18 A2999 RMK A01 T02770182  RH  056%=      5-min Rain = 0
KHA3 200925Z 17011KT 28/18 A2999 RMK A01 T02770182  RH  056%=      5-min Rain = 0
KHA3 200926Z 18011KT 28/18 A2999 RMK A01 T02770183  RH  057%=      5-min Rain = 0
KHA3 200927Z 17010KT 28/18 A2999 RMK A01 T02760182  RH  057%=      5-min Rain = 0
KHA3 200928Z 17011KT 28/18 A2999 RMK A01 T02750182  RH  057%=      5-min Rain = 0
KHA3 200929Z 17011KT 28/18 A2999 RMK A01 T02750182  RH  057%=      5-min Rain = 0
KHA3 200930Z 17011KT 28/18 A2999 RMK A01 T02750182  RH  057%=      5-min Rain = 0
KHA3 200931Z 17011KT 28/18 A2999 RMK A01 T02750182  RH  057%=      5-min Rain = 0
KHA3 200932Z 17011KT 28/18 A2999 RMK A01 T02750182  RH  057%=      5-min Rain = 0
KHA3 200933Z 17011KT 28/18 A2999 RMK A01 T02750182  RH  057%=      5-min Rain = 0
KHA3 200934Z 18010KT 28/18 A2999 RMK A01 T02750182  RH  057%=      5-min Rain = 0
KHA3 200935Z 18010KT 28/18 A2999 RMK A01 T02750183  RH  057%=      5-min Rain = 0
KHA3 200936Z 18010KT 27/18 A2999 RMK A01 T02740183  RH  057%=      5-min Rain = 0
KHA3 200937Z 17010KT 27/18 A2999 RMK A01 T02730182  RH  057%=      5-min Rain = 0
KHA3 200938Z 17009KT 27/18 A30 RMK A01 T02730182  RH  057%=      5-min Rain = 0
KHA3 200939Z 17010KT 27/18 A30 RMK A01 T02730182  RH  058%=      5-min Rain = 0
KHA3 200940Z 17010KT 27/18 A30 RMK A01 T02730183  RH  058%=      5-min Rain = 0
KHA3 200941Z 17010KT 27/18 A30 RMK A01 T02720182  RH  058%=      5-min Rain = 0
KHA3 200942Z 17010KT 27/18 A30 RMK A01 T02720183  RH  058%=      5-min Rain = 0
KHA3 200943Z 18010KT 27/18 A30 RMK A01 T02710182  RH  058%=      5-min Rain = 0
KHA3 200944Z 17010KT 27/18 A30 RMK A01 T02710183  RH  058%=      5-min Rain = 0
KHA3 200945Z 17010KT 27/18 A30 RMK A01 T02710182  RH  058%=      5-min Rain = 0
KHA3 200946Z 18010KT 27/18 A30 RMK A01 T02710182  RH  058%=      5-min Rain = 0
KHA3 200947Z 17010KT 27/18 A30 RMK A01 T02700182  RH  058%=      5-min Rain = 0
KHA3 200948Z 17010KT 27/18 A30 RMK A01 T02700182  RH  058%=      5-min Rain = 0
KHA3 200949Z 18010KT 27/18 A30 RMK A01 T02710182  RH  058%=      5-min Rain = 0
KHA3 200950Z 18010KT 27/18 A30 RMK A01 T02700182  RH  058%=      5-min Rain = 0
KHA3 200951Z 18009KT 27/18 A30 RMK A01 T02700182  RH  058%=      5-min Rain = 0
KHA3 200952Z 18010KT 27/18 A30 RMK A01 T02700183  RH  059%=      5-min Rain = 0
KHA3 200953Z 18009KT 27/18 A30 RMK A01 T02700182  RH  059%=      5-min Rain = 0
KHA3 200954Z 18011KT 27/18 A30 RMK A01 T02700182  RH  059%=      5-min Rain = 0
KHA3 200955Z 18010KT 27/18 A30 RMK A01 T02700181  RH  058%=      5-min Rain = 0
KHA3 200956Z 18010KT 27/18 A30 RMK A01 T02710182  RH  058%=      5-min Rain = 0
KHA3 200957Z 18010KT 27/18 A30 RMK A01 T02710182  RH  058%=      5-min Rain = 0
KHA3 200958Z 18010KT 27/18 A30 RMK A01 T02710182  RH  058%=      5-min Rain = 0
KHA3 200959Z 18009KT 27/18 A30 RMK A01 T02700182  RH  059%=      5-min Rain = 0
KHA3 201000Z 18010KT 27/18 A30 RMK A01 T02700182  RH  059%=      5-min Rain = 0
KHA3 201001Z 18010KT 27/18 A30 RMK A01 T02700182  RH  059%=      5-min Rain = 0
KHA3 201002Z 18010KT 27/18 A30 RMK A01 T02700182  RH  059%=      5-min Rain = 0
KHA3 201003Z 18011KT 27/18 A30 RMK A01 T02700182  RH  059%=      5-min Rain = 0
KHA3 201004Z 18010KT 27/18 A30 RMK A01 T02700182  RH  059%=      5-min Rain = 0
KHA3 201005Z 17010KT 27/18 A30 RMK A01 T02690182  RH  059%=      5-min Rain = 0
KHA3 201006Z 17010KT 27/18 A30 RMK A01 T02690182  RH  059%=      5-min Rain = 0
KHA3 201007Z 17010KT 27/18 A30 RMK A01 T02690182  RH  059%=      5-min Rain = 0
KHA3 201008Z 17011KT 27/18 A30 RMK A01 T02680182  RH  059%=      5-min Rain = 0
KHA3 201009Z 17010KT 27/18 A30 RMK A01 T02680181  RH  059%=      5-min Rain = 0
KHA3 201010Z 17009KT 27/18 A30 RMK A01 T02680182  RH  059%=      5-min Rain = 0
KHA3 201011Z 17010KT 27/18 A30 RMK A01 T02680182  RH  059%=      5-min Rain = 0
KHA3 201012Z 17010KT 27/18 A30 RMK A01 T02680181  RH  059%=      5-min Rain = 0
KHA3 201013Z 17010KT 27/18 A30 RMK A01 T02670182  RH  059%=      5-min Rain = 0
KHA3 201014Z 17010KT 27/18 A30 RMK A01 T02670181  RH  059%=      5-min Rain = 0
KHA3 201015Z 17010KT 27/18 A30 RMK A01 T02680181  RH  059%=      5-min Rain = 0
KHA3 201016Z 17010KT 27/18 A30 RMK A01 T02680182  RH  059%=      5-min Rain = 0
KHA3 201017Z 17010KT 27/18 A30 RMK A01 T02670182  RH  059%=      5-min Rain = 0
KHA3 201018Z 17010KT 27/18 A30 RMK A01 T02670182  RH  059%=      5-min Rain = 0
KHA3 201019Z 17010KT 27/18 A30 RMK A01 T02670182  RH  059%=      5-min Rain = 0
KHA3 201020Z 17011KT 27/18 A30 RMK A01 T02670182  RH  059%=      5-min Rain = 0
KHA3 201021Z 17011KT 27/18 A30 RMK A01 T02670181  RH  059%=      5-min Rain = 0
KHA3 201022Z 17010KT 27/18 A30 RMK A01 T02670181  RH  059%=      5-min Rain = 0
KHA3 201023Z 17010KT 27/18 A30 RMK A01 T02670182  RH  060%=      5-min Rain = 0
KHA3 201024Z 17010KT 27/18 A30 RMK A01 T02660182  RH  060%=      5-min Rain = 0
KHA3 201025Z 17010KT 27/18 A30 RMK A01 T02660182  RH  060%=      5-min Rain = 0
KHA3 201026Z 17010KT 27/18 A30 RMK A01 T02660182  RH  060%=      5-min Rain = 0
KHA3 201027Z 17010KT 27/18 A30 RMK A01 T02660181  RH  060%=      5-min Rain = 0
KHA3 201028Z 17010KT 27/18 A30 RMK A01 T02660181  RH  060%=      5-min Rain = 0
KHA3 201029Z 17010KT 27/18 A30 RMK A01 T02660182  RH  060%=      5-min Rain = 0
KHA3 201030Z 17011KT 27/18 A30 RMK A01 T02650182  RH  060%=      5-min Rain = 0
KHA3 201031Z 17010KT 27/18 A3001 RMK A01 T02650182  RH  060%=      5-min Rain = 0
KHA3 201032Z 17011KT 26/18 A3001 RMK A01 T02640181  RH  060%=      5-min Rain = 0
KHA3 201033Z 17010KT 26/18 A3001 RMK A01 T02640182  RH  061%=      5-min Rain = 0
KHA3 201034Z 17011KT 26/18 A3001 RMK A01 T02640182  RH  061%=      5-min Rain = 0
KHA3 201035Z 17011KT 26/18 A3001 RMK A01 T02630182  RH  061%=      5-min Rain = 0
KHA3 201036Z 17011KT 26/18 A3001 RMK A01 T02630181  RH  061%=      5-min Rain = 0
KHA3 201037Z 17011KT 26/18 A3001 RMK A01 T02630182  RH  061%=      5-min Rain = 0
KHA3 201038Z 17011KT 26/18 A3001 RMK A01 T02620182  RH  061%=      5-min Rain = 0
KHA3 201039Z 17011KT 26/18 A3001 RMK A01 T02620182  RH  061%=      5-min Rain = 0
KHA3 201040Z 17011KT 26/18 A30 RMK A01 T02610182  RH  061%=      5-min Rain = 0
KHA3 201041Z 17011KT 26/18 A30 RMK A01 T02610181  RH  061%=      5-min Rain = 0
KHA3 201042Z 17011KT 26/18 A30 RMK A01 T02610182  RH  062%=      5-min Rain = 0
KHA3 201043Z 17011KT 26/18 A30 RMK A01 T02610181  RH  061%=      5-min Rain = 0
KHA3 201044Z 17011KT 26/18 A30 RMK A01 T02610182  RH  062%=      5-min Rain = 0
KHA3 201045Z 17011KT 26/18 A30 RMK A01 T02610182  RH  062%=      5-min Rain = 0
KHA3 201046Z 18012KT 26/18 A30 RMK A01 T02610181  RH  062%=      5-min Rain = 0
KHA3 201047Z 17010KT 26/18 A3001 RMK A01 T02610181  RH  062%=      5-min Rain = 0
KHA3 201048Z 17011KT 26/18 A3001 RMK A01 T02610182  RH  062%=      5-min Rain = 0
KHA3 201049Z 18011KT 26/18 A3001 RMK A01 T02610181  RH  062%=      5-min Rain = 0
KHA3 201050Z 18011KT 26/18 A3001 RMK A01 T02610181  RH  061%=      5-min Rain = 0
KHA3 201051Z 18011KT 26/18 A3001 RMK A01 T02610181  RH  061%=      5-min Rain = 0
KHA3 201052Z 18011KT 26/18 A3001 RMK A01 T02610181  RH  061%=      5-min Rain = 0
KHA3 201053Z 18011KT 26/18 A3001 RMK A01 T02610181  RH  061%=      5-min Rain = 0
KHA3 201054Z 18011KT 26/18 A3001 RMK A01 T02620181  RH  061%=      5-min Rain = 0
KHA3 201055Z 18011KT 26/18 A3001 RMK A01 T02620181  RH  061%=      5-min Rain = 0
KHA3 201056Z 18011KT 26/18 A3001 RMK A01 T02620181  RH  061%=      5-min Rain = 0
KHA3 201057Z 18011KT 26/18 A3001 RMK A01 T02610181  RH  061%=      5-min Rain = 0
KHA3 201058Z 18012KT 26/18 A3001 RMK A01 T02610180  RH  061%=      5-min Rain = 0
KHA3 201059Z 18011KT 26/18 A3001 RMK A01 T02610181  RH  061%=      5-min Rain = 0
KHA3 201100Z 18012KT 26/18 A3001 RMK A01 T02610181  RH  061%=      5-min Rain = 0
KHA3 201101Z 17012KT 26/18 A3001 RMK A01 T02610181  RH  061%=      5-min Rain = 0
KHA3 201102Z 18012KT 26/18 A3001 RMK A01 T02610181  RH  061%=      5-min Rain = 0
KHA3 201103Z 17012KT 26/18 A3001 RMK A01 T02610181  RH  061%=      5-min Rain = 0
KHA3 201104Z 18012KT 26/18 A3001 RMK A01 T02610181  RH  061%=      5-min Rain = 0
KHA3 201105Z 18011KT 26/18 A3001 RMK A01 T02610181  RH  061%=      5-min Rain = 0
KHA3 201106Z 18012KT 26/18 A3001 RMK A01 T02610181  RH  061%=      5-min Rain = 0
KHA3 201107Z 18012KT 26/18 A30 RMK A01 T02610181  RH  061%=      5-min Rain = 0
KHA3 201108Z 18012KT 26/18 A30 RMK A01 T02610180  RH  061%=      5-min Rain = 0
KHA3 201109Z 18012KT 26/18 A30 RMK A01 T02610180  RH  061%=      5-min Rain = 0
KHA3 201110Z 18012KT 26/18 A30 RMK A01 T02610180  RH  061%=      5-min Rain = 0
KHA3 201111Z 18011KT 26/18 A30 RMK A01 T02620180  RH  061%=      5-min Rain = 0
KHA3 201112Z 18013KT 26/18 A30 RMK A01 T02620180  RH  061%=      5-min Rain = 0
KHA3 201113Z 18012KT 26/18 A30 RMK A01 T02620180  RH  061%=      5-min Rain = 0
KHA3 201114Z 18012KT 26/18 A30 RMK A01 T02620180  RH  061%=      5-min Rain = 0
KHA3 201115Z 18012KT 26/18 A30 RMK A01 T02620180  RH  060%=      5-min Rain = 0
KHA3 201116Z 18011KT 26/18 A30 RMK A01 T02620180  RH  060%=      5-min Rain = 0
KHA3 201117Z 18012KT 26/18 A30 RMK A01 T02630180  RH  060%=      5-min Rain = 0
KHA3 201118Z 18012KT 26/18 A30 RMK A01 T02630180  RH  060%=      5-min Rain = 0
KHA3 201119Z 18012KT 26/18 A30 RMK A01 T02620180  RH  060%=      5-min Rain = 0
KHA3 201120Z 18011KT 26/18 A30 RMK A01 T02630180  RH  060%=      5-min Rain = 0
KHA3 201121Z 18011KT 26/18 A30 RMK A01 T02620180  RH  060%=      5-min Rain = 0
KHA3 201122Z 18011KT 26/18 A30 RMK A01 T02620179  RH  060%=      5-min Rain = 0
KHA3 201123Z 18011KT 26/18 A30 RMK A01 T02620180  RH  061%=      5-min Rain = 0
KHA3 201124Z 18011KT 26/18 A30 RMK A01 T02620180  RH  061%=      5-min Rain = 0
KHA3 201125Z 18011KT 26/18 A30 RMK A01 T02610180  RH  061%=      5-min Rain = 0
KHA3 201126Z 18011KT 26/18 A30 RMK A01 T02610179  RH  061%=      5-min Rain = 0
KHA3 201127Z 18011KT 26/18 A30 RMK A01 T02620179  RH  060%=      5-min Rain = 0
KHA3 201128Z 18012KT 26/18 A30 RMK A01 T02620180  RH  061%=      5-min Rain = 0
KHA3 201129Z 18011KT 26/18 A3001 RMK A01 T02610180  RH  061%=      5-min Rain = 0
KHA3 201130Z 18011KT 26/18 A3001 RMK A01 T02610180  RH  061%=      5-min Rain = 0
KHA3 201131Z 18011KT 26/18 A3001 RMK A01 T02600179  RH  061%=      5-min Rain = 0
KHA3 201132Z 18011KT 26/18 A3001 RMK A01 T02600180  RH  061%=      5-min Rain = 0
KHA3 201133Z 18011KT 26/18 A3001 RMK A01 T02600179  RH  061%=      5-min Rain = 0
KHA3 201134Z 18011KT 26/18 A3001 RMK A01 T02600180  RH  061%=      5-min Rain = 0
KHA3 201135Z 18010KT 26/18 A3001 RMK A01 T02590180  RH  062%=      5-min Rain = 0
KHA3 201136Z 18011KT 26/18 A3001 RMK A01 T02590180  RH  062%=      5-min Rain = 0
KHA3 201137Z 18010KT 26/18 A3001 RMK A01 T02590180  RH  062%=      5-min Rain = 0
KHA3 201138Z 18011KT 26/18 A3001 RMK A01 T02590179  RH  062%=      5-min Rain = 0
KHA3 201139Z 18011KT 26/18 A3001 RMK A01 T02590179  RH  061%=      5-min Rain = 0
KHA3 201140Z 18011KT 26/18 A3001 RMK A01 T02590179  RH  061%=      5-min Rain = 0
KHA3 201141Z 18010KT 26/18 A3001 RMK A01 T02590179  RH  061%=      5-min Rain = 0
KHA3 201142Z 18010KT 26/18 A3001 RMK A01 T02590179  RH  061%=      5-min Rain = 0
KHA3 201143Z 19010KT 26/18 A3001 RMK A01 T02590179  RH  061%=      5-min Rain = 0
KHA3 201144Z 18010KT 26/18 A3001 RMK A01 T02590179  RH  061%=      5-min Rain = 0
KHA3 201145Z 19010KT 26/18 A3001 RMK A01 T02590179  RH  061%=      5-min Rain = 0
KHA3 201146Z 19011KT 26/18 A3001 RMK A01 T02580179  RH  062%=      5-min Rain = 0
KHA3 201147Z 19010KT 26/18 A3001 RMK A01 T02590179  RH  062%=      5-min Rain = 0
KHA3 201148Z 18011KT 26/18 A3001 RMK A01 T02590178  RH  061%=      5-min Rain = 0
KHA3 201149Z 19010KT 26/18 A3001 RMK A01 T02590179  RH  061%=      5-min Rain = 0
KHA3 201150Z 19010KT 26/18 A3001 RMK A01 T02590178  RH  061%=      5-min Rain = 0
KHA3 201151Z 19011KT 26/18 A3001 RMK A01 T02590178  RH  061%=      5-min Rain = 0
KHA3 201152Z 18010KT 26/18 A3001 RMK A01 T02600179  RH  061%=      5-min Rain = 0
KHA3 201153Z 19009KT 26/18 A3001 RMK A01 T02600179  RH  061%=      5-min Rain = 0
KHA3 201154Z 19011KT 26/18 A3001 RMK A01 T02590179  RH  061%=      5-min Rain = 0
KHA3 201155Z 18010KT 26/18 A3001 RMK A01 T02590179  RH  061%=      5-min Rain = 0
KHA3 201156Z 18010KT 26/18 A3001 RMK A01 T02600179  RH  061%=      5-min Rain = 0
KHA3 201157Z 18010KT 26/18 A3001 RMK A01 T02590178  RH  061%=      5-min Rain = 0
KHA3 201158Z 18010KT 26/18 A3001 RMK A01 T02590179  RH  061%=      5-min Rain = 0
KHA3 201159Z 18010KT 26/18 A3001 RMK A01 T02590179  RH  061%=      5-min Rain = 0
KHA3 201200Z 18011KT 26/18 A3001 RMK A01 T02590179  RH  061%=      5-min Rain = 0
KHA3 201201Z 18010KT 26/18 A3001 RMK A01 T02590179  RH  061%=      5-min Rain = 0
KHA3 201202Z 18010KT 26/18 A3001 RMK A01 T02590179  RH  061%=      5-min Rain = 0
KHA3 201203Z 18010KT 26/18 A3001 RMK A01 T02580178  RH  061%=      5-min Rain = 0
KHA3 201204Z 18010KT 26/18 A3001 RMK A01 T02590178  RH  061%=      5-min Rain = 0
KHA3 201205Z 18010KT 26/18 A3001 RMK A01 T02590179  RH  061%=      5-min Rain = 0
KHA3 201206Z 18010KT 26/18 A3001 RMK A01 T02580179  RH  062%=      5-min Rain = 0
KHA3 201207Z 18011KT 26/18 A3001 RMK A01 T02580179  RH  062%=      5-min Rain = 0
KHA3 201208Z 18010KT 26/18 A3002 RMK A01 T02580178  RH  061%=      5-min Rain = 0
KHA3 201209Z 18010KT 26/18 A3002 RMK A01 T02580178  RH  061%=      5-min Rain = 0
KHA3 201210Z 18010KT 26/18 A3002 RMK A01 T02590178  RH  061%=      5-min Rain = 0
KHA3 201211Z 18010KT 26/18 A3002 RMK A01 T02590178  RH  061%=      5-min Rain = 0
KHA3 201212Z 18010KT 26/18 A3002 RMK A01 T02590178  RH  061%=      5-min Rain = 0
KHA3 201213Z 18011KT 26/18 A3002 RMK A01 T02590179  RH  061%=      5-min Rain = 0
KHA3 201214Z 18010KT 26/18 A3002 RMK A01 T02590179  RH  061%=      5-min Rain = 0
KHA3 201215Z 18010KT 26/18 A3002 RMK A01 T02590178  RH  061%=      5-min Rain = 0
KHA3 201216Z 18010KT 26/18 A3002 RMK A01 T02580178  RH  061%=      5-min Rain = 0
KHA3 201217Z 18009KT 26/18 A3002 RMK A01 T02580179  RH  062%=      5-min Rain = 0
KHA3 201218Z 18009KT 26/18 A3002 RMK A01 T02580179  RH  062%=      5-min Rain = 0
KHA3 201219Z 18009KT 26/18 A3002 RMK A01 T02570179  RH  062%=      5-min Rain = 0
KHA3 201220Z 18009KT 26/18 A3002 RMK A01 T02560179  RH  062%=      5-min Rain = 0
KHA3 201221Z 18009KT 26/18 A3002 RMK A01 T02560179  RH  063%=      5-min Rain = 0
KHA3 201222Z 18009KT 26/18 A3002 RMK A01 T02550179  RH  063%=      5-min Rain = 0
KHA3 201223Z 18009KT 26/18 A3002 RMK A01 T02550179  RH  063%=      5-min Rain = 0
KHA3 201224Z 18008KT 26/18 A3002 RMK A01 T02550179  RH  063%=      5-min Rain = 0
KHA3 201225Z 18008KT 26/18 A3002 RMK A01 T02560179  RH  063%=      5-min Rain = 0
KHA3 201226Z 18008KT 26/18 A3002 RMK A01 T02560180  RH  063%=      5-min Rain = 0
KHA3 201227Z 19008KT 26/18 A3002 RMK A01 T02560179  RH  063%=      5-min Rain = 0
KHA3 201228Z 19008KT 26/18 A3002 RMK A01 T02560179  RH  062%=      5-min Rain = 0
KHA3 201229Z 19008KT 26/18 A3002 RMK A01 T02560179  RH  062%=      5-min Rain = 0
KHA3 201230Z 19008KT 26/18 A3002 RMK A01 T02570179  RH  062%=      5-min Rain = 0
KHA3 201231Z 19007KT 26/18 A3002 RMK A01 T02570179  RH  062%=      5-min Rain = 0
KHA3 201232Z 19009KT 26/18 A3002 RMK A01 T02570180  RH  062%=      5-min Rain = 0
KHA3 201233Z 19008KT 26/18 A3002 RMK A01 T02570180  RH  062%=      5-min Rain = 0
KHA3 201234Z 19007KT 26/18 A3002 RMK A01 T02570179  RH  062%=      5-min Rain = 0
KHA3 201235Z 19008KT 26/18 A3003 RMK A01 T02570180  RH  062%=      5-min Rain = 0
KHA3 201236Z 19008KT 26/18 A3003 RMK A01 T02570179  RH  062%=      5-min Rain = 0
KHA3 201237Z 19007KT 26/18 A3003 RMK A01 T02580179  RH  062%=      5-min Rain = 0
KHA3 201238Z 19008KT 26/18 A3003 RMK A01 T02580179  RH  062%=      5-min Rain = 0
KHA3 201239Z 19007KT 26/18 A3003 RMK A01 T02590180  RH  062%=      5-min Rain = 0
KHA3 201240Z 19007KT 26/18 A3003 RMK A01 T02590180  RH  062%=      5-min Rain = 0
KHA3 201241Z 19008KT 26/18 A3003 RMK A01 T02590181  RH  062%=      5-min Rain = 0
KHA3 201242Z 19007KT 26/18 A3003 RMK A01 T02580180  RH  062%=      5-min Rain = 0
KHA3 201243Z 19007KT 26/18 A3003 RMK A01 T02590180  RH  062%=      5-min Rain = 0
KHA3 201244Z 19009KT 26/18 A3003 RMK A01 T02590179  RH  061%=      5-min Rain = 0
KHA3 201245Z 19008KT 26/18 A3003 RMK A01 T02590180  RH  061%=      5-min Rain = 0
KHA3 201246Z 19007KT 26/18 A3003 RMK A01 T02590180  RH  061%=      5-min Rain = 0
KHA3 201247Z 19008KT 26/18 A3003 RMK A01 T02590180  RH  061%=      5-min Rain = 0
KHA3 201248Z 19008KT 26/18 A3003 RMK A01 T02600180  RH  061%=      5-min Rain = 0
KHA3 201249Z 19007KT 26/18 A3003 RMK A01 T02590180  RH  062%=      5-min Rain = 0
KHA3 201250Z 19007KT 26/18 A3003 RMK A01 T02600181  RH  062%=      5-min Rain = 0
KHA3 201251Z 19008KT 26/18 A3003 RMK A01 T02600181  RH  062%=      5-min Rain = 0
KHA3 201252Z 19008KT 26/18 A3003 RMK A01 T02600181  RH  062%=      5-min Rain = 0
KHA3 201253Z 19008KT 26/18 A3003 RMK A01 T02600181  RH  061%=      5-min Rain = 0
KHA3 201254Z 19008KT 26/18 A3003 RMK A01 T02610180  RH  061%=      5-min Rain = 0
KHA3 201255Z 19008KT 26/18 A3003 RMK A01 T02620180  RH  061%=      5-min Rain = 0
KHA3 201256Z 19007KT 26/18 A3003 RMK A01 T02620180  RH  061%=      5-min Rain = 0
KHA3 201257Z 19007KT 26/18 A3003 RMK A01 T02630181  RH  061%=      5-min Rain = 0
KHA3 201258Z 19007KT 26/18 A3003 RMK A01 T02630181  RH  060%=      5-min Rain = 0
KHA3 201259Z 19008KT 26/18 A3003 RMK A01 T02640181  RH  060%=      5-min Rain = 0
KHA3 201300Z 19008KT 26/18 A3003 RMK A01 T02640180  RH  060%=      5-min Rain = 0
KHA3 201301Z 19008KT 27/18 A3003 RMK A01 T02650181  RH  060%=      5-min Rain = 0
KHA3 201302Z 19008KT 27/18 A3003 RMK A01 T02650181  RH  060%=      5-min Rain = 0
KHA3 201303Z 19008KT 27/18 A3003 RMK A01 T02650181  RH  060%=      5-min Rain = 0
KHA3 201304Z 19009KT 27/18 A3003 RMK A01 T02660181  RH  060%=      5-min Rain = 0
KHA3 201305Z 20008KT 27/18 A3003 RMK A01 T02660180  RH  059%=      5-min Rain = 0
KHA3 201306Z 20009KT 27/18 A3003 RMK A01 T02670180  RH  059%=      5-min Rain = 0
KHA3 201307Z 20009KT 27/18 A3003 RMK A01 T02680180  RH  059%=      5-min Rain = 0
KHA3 201308Z 20010KT 27/18 A3003 RMK A01 T02680180  RH  059%=      5-min Rain = 0
KHA3 201309Z 20008KT 27/18 A3003 RMK A01 T02680180  RH  058%=      5-min Rain = 0
KHA3 201310Z 20009KT 27/18 A3003 RMK A01 T02690180  RH  058%=      5-min Rain = 0
KHA3 201311Z 20009KT 27/18 A3003 RMK A01 T02700180  RH  058%=      5-min Rain = 0
KHA3 201312Z 20009KT 27/18 A3003 RMK A01 T02700180  RH  058%=      5-min Rain = 0
KHA3 201313Z 20009KT 27/18 A3003 RMK A01 T02710181  RH  058%=      5-min Rain = 0
KHA3 201314Z 20010KT 27/18 A3003 RMK A01 T02720180  RH  057%=      5-min Rain = 0
KHA3 201315Z 20009KT 27/18 A3003 RMK A01 T02730181  RH  057%=      5-min Rain = 0
KHA3 201316Z 20009KT 27/18 A3003 RMK A01 T02730180  RH  057%=      5-min Rain = 0
KHA3 201317Z 20008KT 27/18 A3003 RMK A01 T02730180  RH  057%=      5-min Rain = 0
KHA3 201318Z 20008KT 27/18 A3003 RMK A01 T02740181  RH  057%=      5-min Rain = 0
KHA3 201319Z 20009KT 27/18 A3003 RMK A01 T02740181  RH  057%=      5-min Rain = 0
KHA3 201320Z 20008KT 28/18 A3003 RMK A01 T02750181  RH  057%=      5-min Rain = 0
KHA3 201321Z 20010KT 28/18 A3003 RMK A01 T02750181  RH  056%=      5-min Rain = 0
KHA3 201322Z 20011KT 28/18 A3003 RMK A01 T02760180  RH  056%=      5-min Rain = 0
KHA3 201323Z 19010KT 28/18 A3003 RMK A01 T02760180  RH  056%=      5-min Rain = 0
KHA3 201324Z 19010KT 28/18 A3003 RMK A01 T02760181  RH  056%=      5-min Rain = 0
KHA3 201325Z 19009KT 28/18 A3003 RMK A01 T02770181  RH  056%=      5-min Rain = 0
KHA3 201326Z 20010KT 28/18 A3003 RMK A01 T02770181  RH  056%=      5-min Rain = 0
KHA3 201327Z 20011KT 28/18 A3003 RMK A01 T02770180  RH  055%=      5-min Rain = 0
KHA3 201328Z 19011KT 28/18 A3003 RMK A01 T02780181  RH  056%=      5-min Rain = 0
KHA3 201329Z 20012KT 28/18 A3003 RMK A01 T02770180  RH  055%=      5-min Rain = 0
KHA3 201330Z 20012KT 28/18 A3003 RMK A01 T02770180  RH  055%=      5-min Rain = 0
KHA3 201331Z 20010KT 28/18 A3003 RMK A01 T02770180  RH  055%=      5-min Rain = 0
KHA3 201332Z 19009KT 28/18 A3003 RMK A01 T02770181  RH  056%=      5-min Rain = 0
KHA3 201333Z 19010KT 28/18 A3003 RMK A01 T02770181  RH  056%=      5-min Rain = 0
KHA3 201334Z 19010KT 28/18 A3003 RMK A01 T02770180  RH  056%=      5-min Rain = 0
KHA3 201335Z 19010KT 28/18 A3003 RMK A01 T02770181  RH  056%=      5-min Rain = 0
KHA3 201336Z 19010KT 28/18 A3003 RMK A01 T02770181  RH  056%=      5-min Rain = 0
KHA3 201337Z 20011KT 28/18 A3003 RMK A01 T02780180  RH  055%=      5-min Rain = 0
KHA3 201338Z 20010KT 28/18 A3003 RMK A01 T02770180  RH  055%=      5-min Rain = 0
KHA3 201339Z 21008KT 28/18 A3003 RMK A01 T02770181  RH  056%=      5-min Rain = 0
KHA3 201340Z 20011KT 28/18 A3003 RMK A01 T02780180  RH  055%=      5-min Rain = 0
KHA3 201341Z 20010KT 28/18 A3003 RMK A01 T02790180  RH  055%=      5-min Rain = 0
KHA3 201342Z 20010KT 28/18 A3003 RMK A01 T02790181  RH  055%=      5-min Rain = 0
KHA3 201343Z 20008KT 28/18 A3004 RMK A01 T02790181  RH  055%=      5-min Rain = 0
KHA3 201344Z 21009KT 28/18 A3004 RMK A01 T02800180  RH  055%=      5-min Rain = 0
KHA3 201345Z 21008KT 28/18 A3004 RMK A01 T02810181  RH  055%=      5-min Rain = 0
KHA3 201346Z 21011KT 28/18 A3004 RMK A01 T02810181  RH  055%=      5-min Rain = 0
KHA3 201347Z 21010KT 28/18 A3004 RMK A01 T02820181  RH  054%=      5-min Rain = 0
KHA3 201348Z 21010KT 28/18 A3004 RMK A01 T02820180  RH  054%=      5-min Rain = 0
KHA3 201349Z 21009KT 28/18 A3004 RMK A01 T02820181  RH  054%=      5-min Rain = 0
KHA3 201350Z 20010KT 28/18 A3004 RMK A01 T02830181  RH  054%=      5-min Rain = 0
KHA3 201351Z 21008KT 28/18 A3004 RMK A01 T02840181  RH  054%=      5-min Rain = 0
KHA3 201352Z 21010KT 29/18 A3004 RMK A01 T02850182  RH  054%=      5-min Rain = 0
KHA3 201353Z 21010KT 29/18 A3004 RMK A01 T02850181  RH  053%=      5-min Rain = 0
KHA3 201354Z 21010KT 29/18 A3004 RMK A01 T02850181  RH  053%=      5-min Rain = 0
KHA3 201355Z 21010KT 29/18 A3004 RMK A01 T02870181  RH  053%=      5-min Rain = 0
KHA3 201356Z 22009KT 29/18 A3004 RMK A01 T02880181  RH  053%=      5-min Rain = 0
KHA3 201357Z 21010KT 29/18 A3004 RMK A01 T02890181  RH  052%=      5-min Rain = 0
KHA3 201358Z 21010KT 29/18 A3004 RMK A01 T02900181  RH  052%=      5-min Rain = 0
KHA3 201359Z 22010KT 29/18 A3004 RMK A01 T02910181  RH  052%=      5-min Rain = 0
KHA3 201400Z 22011KT 29/18 A3004 RMK A01 T02910181  RH  051%=      5-min Rain = 0
KHA3 201401Z 22009KT 29/18 A3004 RMK A01 T02920181  RH  051%=      5-min Rain = 0
KHA3 201402Z 22009KT 29/18 A3004 RMK A01 T02920182  RH  051%=      5-min Rain = 0
KHA3 201403Z 22011KT 29/18 A3004 RMK A01 T02930182  RH  051%=      5-min Rain = 0
KHA3 201404Z 22010KT 29/18 A3004 RMK A01 T02940181  RH  051%=      5-min Rain = 0
KHA3 201405Z 23009KT 29/18 A3004 RMK A01 T02940181  RH  051%=      5-min Rain = 0
KHA3 201406Z 23011KT 29/18 A3004 RMK A01 T02940182  RH  051%=      5-min Rain = 0
KHA3 201407Z 23009KT 30/18 A3004 RMK A01 T02950181  RH  051%=      5-min Rain = 0
KHA3 201408Z 22010KT 30/18 A3004 RMK A01 T02950181  RH  050%=      5-min Rain = 0
KHA3 201409Z 22011KT 30/18 A3004 RMK A01 T02950181  RH  050%=      5-min Rain = 0
KHA3 201410Z 22009KT 30/18 A3004 RMK A01 T02960181  RH  050%=      5-min Rain = 0
KHA3 201411Z 21010KT 30/18 A3004 RMK A01 T02970182  RH  050%=      5-min Rain = 0
KHA3 201412Z 22011KT 30/18 A3004 RMK A01 T02980182  RH  050%=      5-min Rain = 0
KHA3 201413Z 21012KT 30/18 A3004 RMK A01 T02990181  RH  049%=      5-min Rain = 0
KHA3 201414Z 22009KT 30/18 A3004 RMK A01 T02990182  RH  049%=      5-min Rain = 0
KHA3 201415Z 22010KT 30/18 A3004 RMK A01 T02990182  RH  049%=      5-min Rain = 0
KHA3 201416Z 22011KT 30/18 A3004 RMK A01 T03000181  RH  049%=      5-min Rain = 0
KHA3 201417Z 22012KT 30/18 A3004 RMK A01 T03000181  RH  049%=      5-min Rain = 0
KHA3 201418Z 21012KT 30/18 A3004 RMK A01 T03000181  RH  049%=      5-min Rain = 0
KHA3 201419Z 22010KT 30/18 A3004 RMK A01 T03020182  RH  049%=      5-min Rain = 0
KHA3 201420Z 22010KT 30/18 A3004 RMK A01 T03030182  RH  048%=      5-min Rain = 0
KHA3 201421Z 22010KT 30/18 A3004 RMK A01 T03040182  RH  048%=      5-min Rain = 0
KHA3 201422Z 22010KT 31/18 A3004 RMK A01 T03050181  RH  048%=      5-min Rain = 0
KHA3 201423Z 22009KT 31/18 A3004 RMK A01 T03050183  RH  048%=      5-min Rain = 0
KHA3 201424Z 22010KT 31/18 A3004 RMK A01 T03050182  RH  048%=      5-min Rain = 0
KHA3 201425Z 23011KT 31/18 A3004 RMK A01 T03050182  RH  048%=      5-min Rain = 0
KHA3 201426Z 23010KT 31/18 A3004 RMK A01 T03060182  RH  048%=      5-min Rain = 0
KHA3 201427Z 22009KT 31/18 A3004 RMK A01 T03060182  RH  048%=      5-min Rain = 0
KHA3 201428Z 22009KT 31/19 A3004 RMK A01 T03070185  RH  048%=      5-min Rain = 0
KHA3 201429Z 23010KT 31/18 A3004 RMK A01 T03090183  RH  047%=      5-min Rain = 0
KHA3 201430Z 22009KT 31/18 A3005 RMK A01 T03090183  RH  047%=      5-min Rain = 0
KHA3 201431Z 22010KT 31/19 A3005 RMK A01 T03090185  RH  048%=      5-min Rain = 0
KHA3 201432Z 23014KT 31/18 A3004 RMK A01 T03100184  RH  047%=      5-min Rain = 0
KHA3 201433Z 22009KT 31/18 A3005 RMK A01 T03100184  RH  047%=      5-min Rain = 0
KHA3 201434Z 22012KT 31/19 A3004 RMK A01 T03090185  RH  048%=      5-min Rain = 0
KHA3 201435Z 22011KT 31/18 A3004 RMK A01 T03100184  RH  047%=      5-min Rain = 0
KHA3 201436Z 24013KT 31/19 A3004 RMK A01 T03100185  RH  047%=      5-min Rain = 0
KHA3 201437Z 24013KT 31/18 A3004 RMK A01 T03100184  RH  047%=      5-min Rain = 0
KHA3 201438Z 24010KT 31/19 A3004 RMK A01 T03100185  RH  047%=      5-min Rain = 0
KHA3 201439Z 24010KT 31/19 A3004 RMK A01 T03100185  RH  047%=      5-min Rain = 0
KHA3 201440Z 22012KT 31/19 A3004 RMK A01 T03120185  RH  047%=      5-min Rain = 0
KHA3 201441Z 23011KT 31/19 A3004 RMK A01 T03120185  RH  047%=      5-min Rain = 0
KHA3 201442Z 23011KT 31/19 A3004 RMK A01 T03130185  RH  047%=      5-min Rain = 0
KHA3 201443Z 24013KT 31/19 A3004 RMK A01 T03140186  RH  047%=      5-min Rain = 0
KHA3 201444Z 24013KT 31/18 A3004 RMK A01 T03140184  RH  046%=      5-min Rain = 0
KHA3 201445Z 24013KT 31/19 A3004 RMK A01 T03140185  RH  046%=      5-min Rain = 0
KHA3 201446Z 24012KT 31/19 A3004 RMK A01 T03140185  RH  046%=      5-min Rain = 0
KHA3 201447Z 25011KT 31/19 A3004 RMK A01 T03140186  RH  046%=      5-min Rain = 0
KHA3 201448Z 23009KT 32/19 A3004 RMK A01 T03160186  RH  046%=      5-min Rain = 0
KHA3 201449Z 23009KT 32/19 A3004 RMK A01 T03170187  RH  046%=      5-min Rain = 0
KHA3 201450Z 22011KT 32/19 A3004 RMK A01 T03190187  RH  046%=      5-min Rain = 0
KHA3 201451Z 23011KT 32/19 A3004 RMK A01 T03200185  RH  045%=      5-min Rain = 0
KHA3 201452Z 22009KT 32/19 A3004 RMK A01 T03190186  RH  045%=      5-min Rain = 0
KHA3 201453Z 24012KT 32/19 A3004 RMK A01 T03200186  RH  045%=      5-min Rain = 0
KHA3 201454Z 24013KT 32/19 A3004 RMK A01 T03210185  RH  044%=      5-min Rain = 0
KHA3 201455Z 24012KT 32/19 A3004 RMK A01 T03200185  RH  045%=      5-min Rain = 0
KHA3 201456Z 24014KT 32/19 A3004 RMK A01 T03220186  RH  045%=      5-min Rain = 0
KHA3 201457Z 24014KT 32/18 A3004 RMK A01 T03220184  RH  044%=      5-min Rain = 0
KHA3 201458Z 24011KT 32/18 A3004 RMK A01 T03200184  RH  044%=      5-min Rain = 0
KHA3 201459Z 23012KT 32/19 A3004 RMK A01 T03190185  RH  045%=      5-min Rain = 0
KHA3 201500Z 23011KT 32/19 A3004 RMK A01 T03210185  RH  045%=      5-min Rain = 0
KHA3 201501Z 24012KT 32/19 A3004 RMK A01 T03210185  RH  044%=      5-min Rain = 0
KHA3 201502Z 25011KT 32/19 A3004 RMK A01 T03220186  RH  044%=      5-min Rain = 0
KHA3 201503Z 25012KT 32/19 A3004 RMK A01 T03230186  RH  044%=      5-min Rain = 0
KHA3 201504Z 24012KT 32/19 A3004 RMK A01 T03240185  RH  044%=      5-min Rain = 0
KHA3 201505Z 24013KT 32/19 A3004 RMK A01 T03240185  RH  044%=      5-min Rain = 0
KHA3 201506Z 23012KT 32/19 A3004 RMK A01 T03240186  RH  044%=      5-min Rain = 0
KHA3 201507Z 23012KT 32/19 A3004 RMK A01 T03240186  RH  044%=      5-min Rain = 0
KHA3 201508Z 24013KT 33/19 A3004 RMK A01 T03260186  RH  043%=      5-min Rain = 0
KHA3 201509Z 24012KT 33/19 A3004 RMK A01 T03260186  RH  043%=      5-min Rain = 0
KHA3 201510Z 25010KT 33/19 A3004 RMK A01 T03250186  RH  044%=      5-min Rain = 0
KHA3 201511Z 24012KT 33/19 A3004 RMK A01 T03270187  RH  044%=      5-min Rain = 0
KHA3 201512Z 24012KT 33/19 A3004 RMK A01 T03280186  RH  043%=      5-min Rain = 0
KHA3 201513Z 23011KT 33/19 A3004 RMK A01 T03280187  RH  043%=      5-min Rain = 0
KHA3 201514Z 24012KT 33/19 A3004 RMK A01 T03290186  RH  043%=      5-min Rain = 0
KHA3 201515Z 24012KT 33/19 A3004 RMK A01 T03290185  RH  043%=      5-min Rain = 0
KHA3 201516Z 25012KT 33/19 A3004 RMK A01 T03280186  RH  043%=      5-min Rain = 0
KHA3 201517Z 25012KT 33/19 A3004 RMK A01 T03290185  RH  043%=      5-min Rain = 0
KHA3 201518Z 25012KT 33/19 A3004 RMK A01 T03290187  RH  043%=      5-min Rain = 0
KHA3 201519Z 24013KT 33/19 A3004 RMK A01 T03310186  RH  042%=      5-min Rain = 0
KHA3 201520Z 24010KT 33/19 A3004 RMK A01 T03300185  RH  042%=      5-min Rain = 0
KHA3 201521Z 24010KT 33/19 A3004 RMK A01 T03290186  RH  043%=      5-min Rain = 0
KHA3 201522Z 25011KT 33/19 A3004 RMK A01 T03310187  RH  042%=      5-min Rain = 0
KHA3 201523Z 24013KT 33/19 A3004 RMK A01 T03330188  RH  042%=      5-min Rain = 0
KHA3 201524Z 24011KT 33/19 A3005 RMK A01 T03330186  RH  042%=      5-min Rain = 0
KHA3 201525Z 24010KT 33/19 A3005 RMK A01 T03330186  RH  042%=      5-min Rain = 0
KHA3 201526Z 23010KT 33/19 A3005 RMK A01 T03320186  RH  042%=      5-min Rain = 0
KHA3 201527Z 22008KT 33/19 A3005 RMK A01 T03310187  RH  042%=      5-min Rain = 0
KHA3 201528Z 22010KT 33/19 A3005 RMK A01 T03320187  RH  042%=      5-min Rain = 0
KHA3 201529Z 23011KT 33/19 A3005 RMK A01 T03340186  RH  042%=      5-min Rain = 0
KHA3 201530Z 24011KT 33/19 A3004 RMK A01 T03340187  RH  042%=      5-min Rain = 0
KHA3 201531Z 23012KT 33/19 A3004 RMK A01 T03340186  RH  042%=      5-min Rain = 0
KHA3 201532Z 22011KT 33/19 A3004 RMK A01 T03340186  RH  042%=      5-min Rain = 0
KHA3 201533Z 23010KT 34/19 A3004 RMK A01 T03350187  RH  042%=      5-min Rain = 0
KHA3 201534Z 22011KT 34/19 A3004 RMK A01 T03360187  RH  041%=      5-min Rain = 0
KHA3 201535Z 24014KT 34/19 A3004 RMK A01 T03370185  RH  041%=      5-min Rain = 0
KHA3 201536Z 25013KT 34/19 A3004 RMK A01 T03370186  RH  041%=      5-min Rain = 0
KHA3 201537Z 24013KT 34/19 A3005 RMK A01 T03370186  RH  041%=      5-min Rain = 0
KHA3 201538Z 24014KT 34/19 A3005 RMK A01 T03370186  RH  041%=      5-min Rain = 0
KHA3 201539Z 24012KT 34/19 A3005 RMK A01 T03360186  RH  041%=      5-min Rain = 0
KHA3 201540Z 24011KT 34/19 A3005 RMK A01 T03350186  RH  041%=      5-min Rain = 0
KHA3 201541Z 25009KT 34/19 A3005 RMK A01 T03350186  RH  041%=      5-min Rain = 0
KHA3 201542Z 24008KT 34/19 A3005 RMK A01 T03370186  RH  041%=      5-min Rain = 0
KHA3 201543Z 25011KT 34/19 A3005 RMK A01 T03370185  RH  041%=      5-min Rain = 0
KHA3 201544Z 24011KT 34/19 A3005 RMK A01 T03400187  RH  040%=      5-min Rain = 0
KHA3 201545Z 25012KT 34/19 A3005 RMK A01 T03420187  RH  040%=      5-min Rain = 0
KHA3 201546Z 25011KT 34/19 A3005 RMK A01 T03430187  RH  040%=      5-min Rain = 0
KHA3 201547Z 25013KT 35/19 A3005 RMK A01 T03450188  RH  040%=      5-min Rain = 0
KHA3 201548Z 26011KT 34/19 A3005 RMK A01 T03440187  RH  040%=      5-min Rain = 0
KHA3 201549Z 25011KT 34/19 A3005 RMK A01 T03420188  RH  040%=      5-min Rain = 0
KHA3 201550Z 24011KT 34/19 A3005 RMK A01 T03430187  RH  040%=      5-min Rain = 0
KHA3 201551Z 24011KT 35/19 A3005 RMK A01 T03450187  RH  039%=      5-min Rain = 0
KHA3 201552Z 25011KT 35/19 A3005 RMK A01 T03450186  RH  039%=      5-min Rain = 0
KHA3 201553Z 25012KT 35/19 A3005 RMK A01 T03450185  RH  039%=      5-min Rain = 0
KHA3 201554Z 25010KT 34/19 A3004 RMK A01 T03430185  RH  039%=      5-min Rain = 0
KHA3 201555Z 24011KT 34/19 A3004 RMK A01 T03440188  RH  040%=      5-min Rain = 0
KHA3 201556Z 25011KT 35/19 A3005 RMK A01 T03470187  RH  039%=      5-min Rain = 0
KHA3 201557Z 25011KT 35/19 A3005 RMK A01 T03480186  RH  038%=      5-min Rain = 0
KHA3 201558Z 25012KT 35/19 A3005 RMK A01 T03470187  RH  039%=      5-min Rain = 0
KHA3 201559Z 24009KT 35/19 A3005 RMK A01 T03460187  RH  039%=      5-min Rain = 0
KHA3 201600Z 24007KT 35/19 A3005 RMK A01 T03460186  RH  039%=      5-min Rain = 0
KHA3 201601Z 23009KT 35/19 A3005 RMK A01 T03460185  RH  039%=      5-min Rain = 0
KHA3 201602Z 23011KT 35/19 A3005 RMK A01 T03460186  RH  039%=      5-min Rain = 0
KHA3 201603Z 23012KT 35/19 A3005 RMK A01 T03470186  RH  039%=      5-min Rain = 0
KHA3 201604Z 24012KT 35/18 A3005 RMK A01 T03450184  RH  039%=      5-min Rain = 0
KHA3 201605Z 23010KT 34/18 A3005 RMK A01 T03430184  RH  039%=      5-min Rain = 0
KHA3 201606Z 23010KT 34/19 A3005 RMK A01 T03420186  RH  040%=      5-min Rain = 0
KHA3 201607Z 24010KT 34/19 A3005 RMK A01 T03430185  RH  039%=      5-min Rain = 0
KHA3 201608Z 25009KT 34/19 A3005 RMK A01 T03440186  RH  039%=      5-min Rain = 0
KHA3 201609Z 23008KT 34/19 A3005 RMK A01 T03440185  RH  039%=      5-min Rain = 0
KHA3 201610Z 24009KT 34/19 A3005 RMK A01 T03440185  RH  039%=      5-min Rain = 0
KHA3 201611Z 23011KT 34/18 A3005 RMK A01 T03440183  RH  039%=      5-min Rain = 0
KHA3 201612Z 23009KT 34/18 A3005 RMK A01 T03440184  RH  039%=      5-min Rain = 0
KHA3 201613Z 22009KT 35/18 A3005 RMK A01 T03450183  RH  038%=      5-min Rain = 0
KHA3 201614Z 21009KT 34/18 A3004 RMK A01 T03440183  RH  039%=      5-min Rain = 0
KHA3 201615Z 24012KT 35/19 A3004 RMK A01 T03450185  RH  039%=      5-min Rain = 0
KHA3 201616Z 24011KT 35/18 A3004 RMK A01 T03460184  RH  038%=      5-min Rain = 0
KHA3 201617Z 24009KT 35/19 A3005 RMK A01 T03460185  RH  039%=      5-min Rain = 0
KHA3 201618Z 24007KT 35/18 A3004 RMK A01 T03470184  RH  038%=      5-min Rain = 0
KHA3 201619Z 26008KT 35/19 A3004 RMK A01 T03480185  RH  038%=      5-min Rain = 0
KHA3 201620Z 25009KT 35/19 A3004 RMK A01 T03510187  RH  038%=      5-min Rain = 0
KHA3 201621Z 25010KT 35/19 A3005 RMK A01 T03540187  RH  037%=      5-min Rain = 0
KHA3 201622Z 24010KT 35/19 A3005 RMK A01 T03540185  RH  037%=      5-min Rain = 0
KHA3 201623Z 24008KT 35/19 A3005 RMK A01 T03510185  RH  038%=      5-min Rain = 0
KHA3 201624Z 23008KT 35/19 A3005 RMK A01 T03500185  RH  038%=      5-min Rain = 0
KHA3 201625Z 21008KT 35/18 A3005 RMK A01 T03510183  RH  037%=      5-min Rain = 0
KHA3 201626Z 19007KT 35/18 A3005 RMK A01 T03510184  RH  037%=      5-min Rain = 0
KHA3 201627Z 19005KT 35/19 A3005 RMK A01 T03510185  RH  038%=      5-min Rain = 0
KHA3 201628Z 21011KT 35/19 A3005 RMK A01 T03510186  RH  038%=      5-min Rain = 0
KHA3 201629Z 22011KT 35/19 A3005 RMK A01 T03540186  RH  037%=      5-min Rain = 0
KHA3 201630Z 23011KT 36/19 A3005 RMK A01 T03550185  RH  037%=      5-min Rain = 0
KHA3 201631Z 23009KT 35/19 A3005 RMK A01 T03540185  RH  037%=      5-min Rain = 0
KHA3 201632Z 23008KT 35/18 A3005 RMK A01 T03530184  RH  037%=      5-min Rain = 0
KHA3 201633Z 24006KT 35/18 A3005 RMK A01 T03520184  RH  037%=      5-min Rain = 0
KHA3 201634Z 26003KT 35/18 A3005 RMK A01 T03500182  RH  037%=      5-min Rain = 0
KHA3 201635Z 25007KT 35/18 A3005 RMK A01 T03490184  RH  038%=      5-min Rain = 0
KHA3 201636Z 25010KT 35/18 A3005 RMK A01 T03520184  RH  037%=      5-min Rain = 0
KHA3 201637Z 26011KT 35/18 A3005 RMK A01 T03540183  RH  037%=      5-min Rain = 0
KHA3 201638Z 25009KT 35/18 A3005 RMK A01 T03540184  RH  037%=      5-min Rain = 0
KHA3 201639Z 24010KT 36/18 A3005 RMK A01 T03570184  RH  036%=      5-min Rain = 0
KHA3 201640Z 25006KT 36/18 A3005 RMK A01 T03580183  RH  036%=      5-min Rain = 0
KHA3 201641Z 23006KT 36/19 A3005 RMK A01 T03580185  RH  036%=      5-min Rain = 0
KHA3 201642Z 25009KT 36/18 A3005 RMK A01 T03570181  RH  035%=      5-min Rain = 0
KHA3 201643Z 25008KT 36/18 A3005 RMK A01 T03560184  RH  036%=      5-min Rain = 0
KHA3 201644Z 24008KT 36/18 A3005 RMK A01 T03550183  RH  036%=      5-min Rain = 0
KHA3 201645Z 26007KT 36/19 A3005 RMK A01 T03550185  RH  037%=      5-min Rain = 0
KHA3 201646Z 25008KT 36/18 A3005 RMK A01 T03560184  RH  036%=      5-min Rain = 0
KHA3 201647Z 27008KT 36/19 A3005 RMK A01 T03560186  RH  037%=      5-min Rain = 0
KHA3 201648Z 28008KT 36/18 A3005 RMK A01 T03560184  RH  036%=      5-min Rain = 0
KHA3 201649Z 24007KT 36/19 A3005 RMK A01 T03570185  RH  036%=      5-min Rain = 0
KHA3 201650Z 25010KT 36/19 A3004 RMK A01 T03580186  RH  036%=      5-min Rain = 0
KHA3 201651Z 23008KT 36/19 A3005 RMK A01 T03600185  RH  036%=      5-min Rain = 0
KHA3 201652Z 23009G17KT 36/19 A3005 RMK A01 T03600186  RH  036%=      5-min Rain = 0
KHA3 201653Z 18009G16KT 36/19 A3004 RMK A01 T03610187  RH  036%=      5-min Rain = 0
KHA3 201654Z 19010KT 36/19 A3005 RMK A01 T03630185  RH  035%=      5-min Rain = 0
KHA3 201655Z 19008KT 36/18 A3005 RMK A01 T03620182  RH  035%=      5-min Rain = 0
KHA3 201656Z 16007KT 36/18 A3004 RMK A01 T03600183  RH  035%=      5-min Rain = 0
KHA3 201657Z 15007KT 36/18 A3004 RMK A01 T03600183  RH  035%=      5-min Rain = 0
KHA3 201658Z 18006KT 36/18 A3004 RMK A01 T03610184  RH  035%=      5-min Rain = 0
KHA3 201659Z 20009G16KT 36/19 A3004 RMK A01 T03630185  RH  035%=      5-min Rain = 0
KHA3 201700Z 21009KT 37/18 A3005 RMK A01 T03650183  RH  035%=      5-min Rain = 0
KHA3 201701Z 18009KT 36/19 A3005 RMK A01 T03630185  RH  035%=      5-min Rain = 0
KHA3 201702Z 16011KT 37/19 A3005 RMK A01 T03650186  RH  035%=      5-min Rain = 0
KHA3 201703Z 16009KT 37/18 A3005 RMK A01 T03660181  RH  034%=      5-min Rain = 0
KHA3 201704Z 18007KT 36/18 A3005 RMK A01 T03640180  RH  034%=      5-min Rain = 0
KHA3 201705Z 16004KT 36/18 A3005 RMK A01 T03600178  RH  034%=      5-min Rain = 0
KHA3 201706Z 14004KT 36/18 A3005 RMK A01 T03600179  RH  034%=      5-min Rain = 0
KHA3 201707Z 14004KT 36/18 A3005 RMK A01 T03600179  RH  035%=      5-min Rain = 0
KHA3 201708Z 11003KT 36/18 A3005 RMK A01 T03600180  RH  035%=      5-min Rain = 0
KHA3 201709Z 09003KT 36/18 A3004 RMK A01 T03610182  RH  035%=      5-min Rain = 0
KHA3 201710Z 11004KT 36/18 A3004 RMK A01 T03630182  RH  034%=      5-min Rain = 0
KHA3 201711Z 13002KT 36/18 A3005 RMK A01 T03630179  RH  034%=      5-min Rain = 0
KHA3 201712Z 18002KT 36/18 A3005 RMK A01 T03620180  RH  034%=      5-min Rain = 0
KHA3 201713Z 23005KT 36/18 A3005 RMK A01 T03620182  RH  035%=      5-min Rain = 0
KHA3 201714Z 24007KT 36/18 A3005 RMK A01 T03630180  RH  034%=      5-min Rain = 0
KHA3 201715Z 25004KT 36/18 A3005 RMK A01 T03620178  RH  034%=      5-min Rain = 0
KHA3 201716Z 24001KT 36/18 A3004 RMK A01 T03630180  RH  034%=      5-min Rain = 0
KHA3 201717Z 22003KT 36/18 A3004 RMK A01 T03630180  RH  034%=      5-min Rain = 0
KHA3 201718Z 22003KT 36/18 A3004 RMK A01 T03630182  RH  035%=      5-min Rain = 0
KHA3 201719Z 21004KT 36/18 A3004 RMK A01 T03630181  RH  034%=      5-min Rain = 0
KHA3 201720Z 16006KT 36/18 A3004 RMK A01 T03630184  RH  035%=      5-min Rain = 0
KHA3 201721Z 17007KT 37/19 A3004 RMK A01 T03650185  RH  035%=      5-min Rain = 0
KHA3 201722Z 19008KT 37/18 A3004 RMK A01 T03680184  RH  034%=      5-min Rain = 0
KHA3 201723Z 18006KT 37/18 A3004 RMK A01 T03660183  RH  034%=      5-min Rain = 0
KHA3 201724Z 16007KT 37/18 A3004 RMK A01 T03650184  RH  034%=      5-min Rain = 0
KHA3 201725Z 17010KT 37/18 A3004 RMK A01 T03650184  RH  035%=      5-min Rain = 0
KHA3 201726Z 20010KT 37/18 A3004 RMK A01 T03650183  RH  034%=      5-min Rain = 0
KHA3 201727Z 20010KT 37/19 A3004 RMK A01 T03650185  RH  035%=      5-min Rain = 0
KHA3 201728Z 19009KT 37/18 A3004 RMK A01 T03650183  RH  034%=      5-min Rain = 0
KHA3 201729Z 17007KT 36/18 A3004 RMK A01 T03620182  RH  035%=      5-min Rain = 0
KHA3 201730Z 15005KT 36/18 A3004 RMK A01 T03600180  RH  035%=      5-min Rain = 0
KHA3 201731Z 17003KT 36/18 A3004 RMK A01 T03590181  RH  035%=      5-min Rain = 0
KHA3 201732Z 17003KT 36/18 A3004 RMK A01 T03600183  RH  035%=      5-min Rain = 0
KHA3 201733Z 26003KT 36/18 A3004 RMK A01 T03620181  RH  034%=      5-min Rain = 0
KHA3 201734Z 19005G12KT 36/18 A3004 RMK A01 T03640179  RH  034%=      5-min Rain = 0
KHA3 201735Z 18012KT 37/18 A3004 RMK A01 T03670182  RH  034%=      5-min Rain = 0
KHA3 201736Z 17014KT 37/18 A3004 RMK A01 T03700180  RH  033%=      5-min Rain = 0
KHA3 201737Z 16012KT 37/18 A3004 RMK A01 T03690177  RH  032%=      5-min Rain = 0
KHA3 201738Z 17012KT 37/18 A3004 RMK A01 T03690175  RH  032%=      5-min Rain = 0
KHA3 201739Z 18010KT 37/18 A3004 RMK A01 T03680180  RH  033%=      5-min Rain = 0
KHA3 201740Z 17007KT 37/18 A3004 RMK A01 T03700184  RH  034%=      5-min Rain = 0
KHA3 201741Z 20006KT 37/18 A3004 RMK A01 T03730184  RH  033%=      5-min Rain = 0
KHA3 201742Z 17009G14KT 37/18 A3004 RMK A01 T03710181  RH  033%=      5-min Rain = 0
KHA3 201743Z 16011KT 37/18 A3004 RMK A01 T03690181  RH  033%=      5-min Rain = 0
KHA3 201744Z 16009KT 37/18 A3004 RMK A01 T03660177  RH  033%=      5-min Rain = 0
KHA3 201745Z 12007KT 37/18 A3004 RMK A01 T03650177  RH  033%=      5-min Rain = 0
KHA3 201746Z 12010KT 37/18 A3004 RMK A01 T03650177  RH  033%=      5-min Rain = 0
KHA3 201747Z 13008KT 37/18 A3004 RMK A01 T03660177  RH  033%=      5-min Rain = 0
KHA3 201748Z 14006KT 36/18 A3004 RMK A01 T03640176  RH  033%=      5-min Rain = 0
KHA3 201749Z 13006KT 36/18 A3004 RMK A01 T03630178  RH  034%=      5-min Rain = 0
KHA3 201750Z 12007KT 36/18 A3004 RMK A01 T03640180  RH  034%=      5-min Rain = 0
KHA3 201751Z 11006KT 37/18 A3004 RMK A01 T03650180  RH  034%=      5-min Rain = 0
KHA3 201752Z 11003KT 37/18 A3004 RMK A01 T03660178  RH  033%=      5-min Rain = 0
KHA3 201753Z 12002KT 37/18 A3004 RMK A01 T03650178  RH  033%=      5-min Rain = 0
KHA3 201754Z 11000KT 37/18 A3004 RMK A01 T03650175  RH  033%=      5-min Rain = 0
KHA3 201755Z 21000KT 37/18 A3004 RMK A01 T03650178  RH  033%=      5-min Rain = 0
KHA3 201756Z 17001KT 37/18 A3004 RMK A01 T03660179  RH  033%=      5-min Rain = 0
KHA3 201757Z 19004KT 37/18 A3004 RMK A01 T03690182  RH  034%=      5-min Rain = 0
KHA3 201758Z 16003KT 37/18 A3004 RMK A01 T03700178  RH  033%=      5-min Rain = 0
KHA3 201759Z 13008KT 37/18 A3004 RMK A01 T03700183  RH  033%=      5-min Rain = 0
KHA3 201800Z 13009KT 37/18 A3004 RMK A01 T03720181  RH  033%=      5-min Rain = 0
KHA3 201801Z 13010KT 37/18 A3004 RMK A01 T03730180  RH  032%=      5-min Rain = 0
KHA3 201802Z 14007G13KT 37/18 A3004 RMK A01 T03710179  RH  032%=      5-min Rain = 0
KHA3 201803Z 16010KT 37/18 A3004 RMK A01 T03720184  RH  033%=      5-min Rain = 0
KHA3 201804Z 15010KT 37/18 A3004 RMK A01 T03740183  RH  033%=      5-min Rain = 0
KHA3 201805Z 14009G16KT 37/18 A3004 RMK A01 T03740179  RH  032%=      5-min Rain = 0
KHA3 201806Z 16004KT 37/18 A3004 RMK A01 T03710179  RH  033%=      5-min Rain = 0
KHA3 201807Z 19007KT 37/18 A3004 RMK A01 T03690179  RH  033%=      5-min Rain = 0
KHA3 201808Z 18007KT 37/18 A3004 RMK A01 T03690179  RH  033%=      5-min Rain = 0
KHA3 201809Z 20005KT 37/18 A3004 RMK A01 T03690179  RH  033%=      5-min Rain = 0
KHA3 201810Z 22006KT 37/18 A3003 RMK A01 T03690180  RH  033%=      5-min Rain = 0
KHA3 201811Z 18003KT 37/18 A3003 RMK A01 T03690177  RH  032%=      5-min Rain = 0
KHA3 201812Z 15003KT 37/18 A3003 RMK A01 T03680177  RH  033%=      5-min Rain = 0
KHA3 201813Z 15010KT 37/18 A3003 RMK A01 T03670179  RH  033%=      5-min Rain = 0
KHA3 201814Z 14009KT 37/18 A3003 RMK A01 T03700176  RH  032%=      5-min Rain = 0
KHA3 201815Z 14011KT 37/18 A3003 RMK A01 T03710177  RH  032%=      5-min Rain = 0
KHA3 201816Z 12010KT 37/18 A3003 RMK A01 T03720179  RH  032%=      5-min Rain = 0
KHA3 201817Z 17010KT 37/18 A3003 RMK A01 T03720179  RH  032%=      5-min Rain = 0
KHA3 201818Z 18009KT 37/18 A3003 RMK A01 T03710180  RH  033%=      5-min Rain = 0
KHA3 201819Z 18006G12KT 37/18 A3003 RMK A01 T03690175  RH  032%=      5-min Rain = 0
KHA3 201820Z 20010KT 37/18 A3003 RMK A01 T03670178  RH  033%=      5-min Rain = 0
KHA3 201821Z 21006KT 37/18 A3003 RMK A01 T03670176  RH  033%=      5-min Rain = 0
KHA3 201822Z 23005KT 37/18 A3003 RMK A01 T03670177  RH  033%=      5-min Rain = 0
KHA3 201823Z 17005G13KT 37/18 A3003 RMK A01 T03690177  RH  032%=      5-min Rain = 0
KHA3 201824Z 15012KT 37/18 A3003 RMK A01 T03730179  RH  032%=      5-min Rain = 0
KHA3 201825Z 15011KT 38/18 A3003 RMK A01 T03760178  RH  031%=      5-min Rain = 0
KHA3 201826Z 15011KT 38/18 A3003 RMK A01 T03760176  RH  031%=      5-min Rain = 0
KHA3 201827Z 16010KT 38/18 A3003 RMK A01 T03750177  RH  031%=      5-min Rain = 0
KHA3 201828Z 15010KT 38/17 A3003 RMK A01 T03750173  RH  031%=      5-min Rain = 0
KHA3 201829Z 14006KT 37/17 A3003 RMK A01 T03730172  RH  031%=      5-min Rain = 0
KHA3 201830Z 13000KT 37/17 A3003 RMK A01 T03710172  RH  031%=      5-min Rain = 0
KHA3 201831Z 19001KT 37/17 A3003 RMK A01 T03700171  RH  031%=      5-min Rain = 0
KHA3 201832Z 18005G11KT 37/17 A3003 RMK A01 T03700174  RH  032%=      5-min Rain = 0
KHA3 201833Z 18012KT 37/17 A3003 RMK A01 T03720174  RH  031%=      5-min Rain = 0
KHA3 201834Z 16012KT 37/17 A3003 RMK A01 T03740172  RH  031%=      5-min Rain = 0
KHA3 201835Z 16010KT 38/17 A3003 RMK A01 T03750169  RH  030%=      5-min Rain = 0
KHA3 201836Z 15010KT 38/17 A3003 RMK A01 T03760170  RH  030%=      5-min Rain = 0
KHA3 201837Z 15010KT 38/17 A3003 RMK A01 T03770173  RH  030%=      5-min Rain = 0
KHA3 201838Z 13008KT 38/17 A3003 RMK A01 T03770167  RH  029%=      5-min Rain = 0
KHA3 201839Z 12006KT 38/17 A3003 RMK A01 T03760171  RH  030%=      5-min Rain = 0
KHA3 201840Z 10005KT 38/17 A3003 RMK A01 T03750165  RH  029%=      5-min Rain = 0
KHA3 201841Z 11004KT 37/17 A3003 RMK A01 T03740166  RH  029%=      5-min Rain = 0
KHA3 201842Z 14004KT 37/16 A3003 RMK A01 T03720164  RH  029%=      5-min Rain = 0
KHA3 201843Z 15005G10KT 37/17 A3003 RMK A01 T03730171  RH  030%=      5-min Rain = 0
KHA3 201844Z 14010KT 38/18 A3003 RMK A01 T03760176  RH  031%=      5-min Rain = 0
KHA3 201845Z 15008KT 38/18 A3003 RMK A01 T03760180  RH  032%=      5-min Rain = 0
KHA3 201846Z 14008KT 38/18 A3003 RMK A01 T03770178  RH  031%=      5-min Rain = 0
KHA3 201847Z 12006KT 38/18 A3003 RMK A01 T03770181  RH  032%=      5-min Rain = 0
KHA3 201848Z 12006KT 38/18 A3003 RMK A01 T03780177  RH  031%=      5-min Rain = 0
KHA3 201849Z 16006KT 38/18 A3003 RMK A01 T03770180  RH  032%=      5-min Rain = 0
KHA3 201850Z 20002KT 38/18 A3003 RMK A01 T03760176  RH  031%=      5-min Rain = 0
KHA3 201851Z 12007KT 38/18 A3003 RMK A01 T03750181  RH  032%=      5-min Rain = 0
KHA3 201852Z 13009KT 38/18 A3003 RMK A01 T03790177  RH  031%=      5-min Rain = 0
KHA3 201853Z 13008KT 38/18 A3003 RMK A01 T03800177  RH  030%=      5-min Rain = 0
KHA3 201854Z 11007KT 38/17 A3003 RMK A01 T03790174  RH  030%=      5-min Rain = 0
KHA3 201855Z 11008KT 38/17 A3003 RMK A01 T03780172  RH  030%=      5-min Rain = 0
KHA3 201856Z 13006KT 38/17 A3003 RMK A01 T03770171  RH  030%=      5-min Rain = 0
KHA3 201857Z 16005KT 38/17 A3003 RMK A01 T03750173  RH  030%=      5-min Rain = 0
KHA3 201858Z 17003KT 38/18 A3003 RMK A01 T03750175  RH  031%=      5-min Rain = 0
KHA3 201859Z 14002KT 38/18 A3003 RMK A01 T03760176  RH  031%=      5-min Rain = 0
KHA3 201900Z 14003KT 38/18 A3003 RMK A01 T03780179  RH  031%=      5-min Rain = 0
KHA3 201901Z 11008G13KT 38/18 A3003 RMK A01 T03820181  RH  031%=      5-min Rain = 0
KHA3 201902Z 12011KT 38/18 A3002 RMK A01 T03830179  RH  030%=      5-min Rain = 0
KHA3 201903Z 15009KT 38/18 A3003 RMK A01 T03810176  RH  030%=      5-min Rain = 0
KHA3 201904Z 17009KT 38/18 A3002 RMK A01 T03790177  RH  031%=      5-min Rain = 0
KHA3 201905Z 20003KT 38/17 A3002 RMK A01 T03780174  RH  030%=      5-min Rain = 0
KHA3 201906Z 17008KT 38/18 A3002 RMK A01 T03770176  RH  031%=      5-min Rain = 0
KHA3 201907Z 17008KT 38/17 A3002 RMK A01 T03770174  RH  030%=      5-min Rain = 0
KHA3 201908Z 17009KT 38/17 A3002 RMK A01 T03780173  RH  030%=      5-min Rain = 0
KHA3 201909Z 18013G18KT 38/17 A3002 RMK A01 T03780167  RH  029%=      5-min Rain = 0
KHA3 201910Z 17014KT 38/17 A3002 RMK A01 T03790169  RH  029%=      5-min Rain = 0
KHA3 201911Z 15009KT 38/17 A3002 RMK A01 T03800170  RH  029%=      5-min Rain = 0
KHA3 201912Z 16010KT 38/17 A3002 RMK A01 T03810170  RH  029%=      5-min Rain = 0
KHA3 201913Z 14010KT 38/17 A3002 RMK A01 T03830170  RH  029%=      5-min Rain = 0
KHA3 201914Z 13008KT 38/17 A3002 RMK A01 T03800170  RH  029%=      5-min Rain = 0
KHA3 201915Z 13009KT 38/17 A3002 RMK A01 T03790172  RH  030%=      5-min Rain = 0
KHA3 201916Z 14008G13KT 38/17 A3002 RMK A01 T03780172  RH  030%=      5-min Rain = 0
KHA3 201917Z 15011KT 38/18 A3002 RMK A01 T03790179  RH  031%=      5-min Rain = 0
KHA3 201918Z 14013KT 38/18 A3002 RMK A01 T03820175  RH  030%=      5-min Rain = 0
KHA3 201919Z 14012KT 38/17 A3002 RMK A01 T03810171  RH  029%=      5-min Rain = 0
KHA3 201920Z 13007KT 38/17 A3002 RMK A01 T03780170  RH  030%=      5-min Rain = 0
KHA3 201921Z 13006KT 38/17 A3002 RMK A01 T03770173  RH  030%=      5-min Rain = 0
KHA3 201922Z 11006KT 38/18 A3002 RMK A01 T03780176  RH  031%=      5-min Rain = 0
KHA3 201923Z 15007KT 38/18 A3002 RMK A01 T03810177  RH  030%=      5-min Rain = 0
KHA3 201924Z 16008KT 38/18 A3002 RMK A01 T03820177  RH  030%=      5-min Rain = 0
KHA3 201925Z 16008KT 38/17 A3002 RMK A01 T03830174  RH  029%=      5-min Rain = 0
KHA3 201926Z 17006KT 38/17 A3002 RMK A01 T03830174  RH  029%=      5-min Rain = 0
KHA3 201927Z 15004KT 38/17 A3002 RMK A01 T03810172  RH  029%=      5-min Rain = 0
KHA3 201928Z 15004KT 38/17 A3001 RMK A01 T03800171  RH  029%=      5-min Rain = 0
KHA3 201929Z 19011G17KT 38/17 A3001 RMK A01 T03800174  RH  030%=      5-min Rain = 0
KHA3 201930Z 17010KT 38/18 A3001 RMK A01 T03830177  RH  030%=      5-min Rain = 0
KHA3 201931Z 17012KT 39/18 A3001 RMK A01 T03860178  RH  030%=      5-min Rain = 0
KHA3 201932Z 17011KT 39/17 A3001 RMK A01 T03870173  RH  029%=      5-min Rain = 0
KHA3 201933Z 18009KT 39/17 A3001 RMK A01 T03850174  RH  029%=      5-min Rain = 0
KHA3 201934Z 19007KT 38/17 A3001 RMK A01 T03830171  RH  029%=      5-min Rain = 0
KHA3 201935Z 15009KT 38/17 A3001 RMK A01 T03800173  RH  030%=      5-min Rain = 0
KHA3 201936Z 14010KT 38/18 A3001 RMK A01 T03830175  RH  030%=      5-min Rain = 0
KHA3 201937Z 13008KT 39/17 A3001 RMK A01 T03860170  RH  028%=      5-min Rain = 0
KHA3 201938Z 16008KT 38/17 A3001 RMK A01 T03840171  RH  029%=      5-min Rain = 0
KHA3 201939Z 17011KT 38/17 A3001 RMK A01 T03830165  RH  028%=      5-min Rain = 0
KHA3 201940Z 16011KT 38/17 A3001 RMK A01 T03830165  RH  028%=      5-min Rain = 0
KHA3 201941Z 17007KT 38/16 A3001 RMK A01 T03820161  RH  027%=      5-min Rain = 0
KHA3 201942Z 17006KT 38/16 A3001 RMK A01 T03800161  RH  028%=      5-min Rain = 0
KHA3 201943Z 14011KT 38/16 A3001 RMK A01 T03800163  RH  028%=      5-min Rain = 0
KHA3 201944Z 15006KT 38/17 A3001 RMK A01 T03820170  RH  029%=      5-min Rain = 0
KHA3 201945Z 12005KT 39/17 A3001 RMK A01 T03850165  RH  028%=      5-min Rain = 0
KHA3 201946Z 12005KT 39/17 A3001 RMK A01 T03870168  RH  028%=      5-min Rain = 0
KHA3 201947Z 14006G11KT 39/17 A30 RMK A01 T03860169  RH  028%=      5-min Rain = 0
KHA3 201948Z 13010KT 39/17 A3001 RMK A01 T03860174  RH  029%=      5-min Rain = 0
KHA3 201949Z 15009KT 39/18 A3001 RMK A01 T03890175  RH  029%=      5-min Rain = 0
KHA3 201950Z 18011KT 39/18 A3001 RMK A01 T03910176  RH  029%=      5-min Rain = 0
KHA3 201951Z 18007KT 39/18 A3001 RMK A01 T03910176  RH  028%=      5-min Rain = 0
KHA3 201952Z 14007KT 39/18 A3001 RMK A01 T03900176  RH  029%=      5-min Rain = 0
KHA3 201953Z 14005KT 39/17 A30 RMK A01 T03860169  RH  028%=      5-min Rain = 0
KHA3 201954Z 12005KT 38/18 A30 RMK A01 T03830175  RH  030%=      5-min Rain = 0
KHA3 201955Z 12006KT 38/17 A30 RMK A01 T03840171  RH  029%=      5-min Rain = 0
KHA3 201956Z 16006KT 38/17 A30 RMK A01 T03820173  RH  030%=      5-min Rain = 0
KHA3 201957Z 17007KT 38/17 A30 RMK A01 T03830172  RH  029%=      5-min Rain = 0
KHA3 201958Z 19010KT 38/17 A30 RMK A01 T03830172  RH  029%=      5-min Rain = 0
KHA3 201959Z 19010KT 38/17 A30 RMK A01 T03830171  RH  029%=      5-min Rain = 0
KHA3 202000Z 18008KT 38/17 A30 RMK A01 T03830172  RH  029%=      5-min Rain = 0
KHA3 202001Z 17008KT 38/17 A30 RMK A01 T03830174  RH  029%=      5-min Rain = 0
KHA3 202002Z 13006KT 39/17 A30 RMK A01 T03860172  RH  029%=      5-min Rain = 0
KHA3 202003Z 13005KT 39/17 A30 RMK A01 T03870171  RH  028%=      5-min Rain = 0
KHA3 202004Z 17010G15KT 39/17 A30 RMK A01 T03870172  RH  028%=      5-min Rain = 0
KHA3 202005Z 18013KT 39/17 A30 RMK A01 T03900169  RH  028%=      5-min Rain = 0
KHA3 202006Z 19014KT 39/17 A30 RMK A01 T03910166  RH  027%=      5-min Rain = 0
KHA3 202007Z 20012KT 39/17 A30 RMK A01 T03870165  RH  027%=      5-min Rain = 0
KHA3 202008Z 18009KT 39/17 A30 RMK A01 T03880167  RH  028%=      5-min Rain = 0
KHA3 202009Z 20008KT 39/16 A30 RMK A01 T03890163  RH  027%=      5-min Rain = 0
KHA3 202010Z 21006KT 39/16 A2999 RMK A01 T03870162  RH  027%=      5-min Rain = 0
KHA3 202011Z 20006KT 39/16 A2999 RMK A01 T03870162  RH  027%=      5-min Rain = 0
KHA3 202012Z 19005KT 39/16 A2999 RMK A01 T03860163  RH  027%=      5-min Rain = 0
KHA3 202013Z 15005KT 39/16 A2999 RMK A01 T03860164  RH  027%=      5-min Rain = 0
KHA3 202014Z 14008KT 39/17 A2999 RMK A01 T03880168  RH  028%=      5-min Rain = 0
KHA3 202015Z 15007G12KT 39/17 A2999 RMK A01 T03900172  RH  028%=      5-min Rain = 0
KHA3 202016Z 16010KT 39/17 A2999 RMK A01 T03930168  RH  027%=      5-min Rain = 0
KHA3 202017Z 16012KT 39/17 A2999 RMK A01 T03930166  RH  026%=      5-min Rain = 0
KHA3 202018Z 15011KT 39/16 A2999 RMK A01 T03910161  RH  026%=      5-min Rain = 0
KHA3 202019Z 16010KT 39/17 A2999 RMK A01 T03890166  RH  027%=      5-min Rain = 0
KHA3 202020Z 15011KT 39/16 A2999 RMK A01 T03930164  RH  026%=      5-min Rain = 0
KHA3 202021Z 14009KT 39/16 A2999 RMK A01 T03940162  RH  026%=      5-min Rain = 0
KHA3 202022Z 15010KT 39/16 A2999 RMK A01 T03920160  RH  026%=      5-min Rain = 0
KHA3 202023Z 14005KT 39/16 A2999 RMK A01 T03890159  RH  026%=      5-min Rain = 0
KHA3 202024Z 19002KT 39/16 A2999 RMK A01 T03860158  RH  026%=      5-min Rain = 0
KHA3 202025Z 20005KT 39/16 A2999 RMK A01 T03850157  RH  026%=      5-min Rain = 0
KHA3 202026Z 17001KT 38/16 A2999 RMK A01 T03840161  RH  027%=      5-min Rain = 0
KHA3 202027Z 18002KT 38/16 A2999 RMK A01 T03830160  RH  027%=      5-min Rain = 0
KHA3 202028Z 17009KT 38/17 A2999 RMK A01 T03840167  RH  028%=      5-min Rain = 0
KHA3 202029Z 17010KT 39/17 A2999 RMK A01 T03870171  RH  028%=      5-min Rain = 0
KHA3 202030Z 13008KT 39/17 A2999 RMK A01 T03910171  RH  028%=      5-min Rain = 0
KHA3 202031Z 15008KT 39/17 A2999 RMK A01 T03930169  RH  027%=      5-min Rain = 0
KHA3 202032Z 17015KT 39/17 A2998 RMK A01 T03930171  RH  027%=      5-min Rain = 0
KHA3 202033Z 16013KT 39/17 A2999 RMK A01 T03910170  RH  028%=      5-min Rain = 0
KHA3 202034Z 17009KT 39/17 A2999 RMK A01 T03890166  RH  027%=      5-min Rain = 0
KHA3 202035Z 15008KT 39/17 A2999 RMK A01 T03870171  RH  028%=      5-min Rain = 0
KHA3 202036Z 15007KT 39/17 A2999 RMK A01 T03870165  RH  027%=      5-min Rain = 0
KHA3 202037Z 11008KT 39/17 A2998 RMK A01 T03850167  RH  028%=      5-min Rain = 0
KHA3 202038Z 10011KT 38/17 A2998 RMK A01 T03840165  RH  028%=      5-min Rain = 0
KHA3 202039Z 11009KT 38/16 A2998 RMK A01 T03840164  RH  028%=      5-min Rain = 0
KHA3 202040Z 14010KT 38/17 A2998 RMK A01 T03840169  RH  028%=      5-min Rain = 0
KHA3 202041Z 16008G13KT 39/17 A2998 RMK A01 T03880165  RH  027%=      5-min Rain = 0
KHA3 202042Z 17004KT 39/16 A2998 RMK A01 T03860163  RH  027%=      5-min Rain = 0
KHA3 202043Z 16007KT 38/17 A2998 RMK A01 T03840165  RH  028%=      5-min Rain = 0
KHA3 202044Z 17012KT 39/17 A2998 RMK A01 T03850170  RH  029%=      5-min Rain = 0
KHA3 202045Z 17011KT 39/17 A2998 RMK A01 T03880167  RH  027%=      5-min Rain = 0
KHA3 202046Z 16008KT 39/17 A2998 RMK A01 T03870167  RH  028%=      5-min Rain = 0
KHA3 202047Z 15011KT 39/17 A2998 RMK A01 T03860168  RH  028%=      5-min Rain = 0
KHA3 202048Z 14010KT 39/17 A2998 RMK A01 T03870167  RH  028%=      5-min Rain = 0
KHA3 202049Z 12009KT 39/17 A2998 RMK A01 T03870167  RH  028%=      5-min Rain = 0
KHA3 202050Z 12008KT 39/17 A2998 RMK A01 T03880166  RH  027%=      5-min Rain = 0
KHA3 202051Z 12007KT 39/16 A2998 RMK A01 T03860163  RH  027%=      5-min Rain = 0
KHA3 202052Z 12006KT 38/17 A2998 RMK A01 T03840165  RH  028%=      5-min Rain = 0
KHA3 202053Z 14008KT 38/17 A2998 RMK A01 T03820166  RH  028%=      5-min Rain = 0
KHA3 202054Z 11010G16KT 39/17 A2998 RMK A01 T03850169  RH  028%=      5-min Rain = 0
KHA3 202055Z 11013KT 39/17 A2998 RMK A01 T03880168  RH  028%=      5-min Rain = 0
KHA3 202056Z 11013KT 39/17 A2998 RMK A01 T03890167  RH  027%=      5-min Rain = 0
KHA3 202057Z 11011KT 39/17 A2998 RMK A01 T03870169  RH  028%=      5-min Rain = 0
KHA3 202058Z 13012KT 39/17 A2998 RMK A01 T03880169  RH  028%=      5-min Rain = 0
KHA3 202059Z 14014KT 39/16 A2998 RMK A01 T03900163  RH  026%=      5-min Rain = 0
KHA3 202100Z 14013KT 39/16 A2998 RMK A01 T03880160  RH  026%=      5-min Rain = 0
KHA3 202101Z 16016KT 39/16 A2997 RMK A01 T03880163  RH  027%=      5-min Rain = 0
KHA3 202102Z 18012KT 39/16 A2998 RMK A01 T03890163  RH  027%=      5-min Rain = 0
KHA3 202103Z 17011KT 39/16 A2998 RMK A01 T03900164  RH  027%=      5-min Rain = 0
KHA3 202104Z 17009KT 39/16 A2997 RMK A01 T03910162  RH  026%=      5-min Rain = 0
KHA3 202105Z 17004KT 39/16 A2997 RMK A01 T03900162  RH  026%=      5-min Rain = 0
KHA3 202106Z 18008KT 39/17 A2997 RMK A01 T03900166  RH  027%=      5-min Rain = 0
KHA3 202107Z 16011G17KT 39/17 A2997 RMK A01 T03920166  RH  027%=      5-min Rain = 0
KHA3 202108Z 17013KT 39/17 A2997 RMK A01 T03930166  RH  027%=      5-min Rain = 0
KHA3 202109Z 17011KT 39/17 A2997 RMK A01 T03940166  RH  026%=      5-min Rain = 0
KHA3 202110Z 15011KT 39/17 A2997 RMK A01 T03930166  RH  027%=      5-min Rain = 0
KHA3 202111Z 14010KT 39/17 A2997 RMK A01 T03920165  RH  027%=      5-min Rain = 0
KHA3 202112Z 12014KT 39/16 A2997 RMK A01 T03920164  RH  026%=      5-min Rain = 0
KHA3 202113Z 14011KT 39/16 A2997 RMK A01 T03900164  RH  027%=      5-min Rain = 0
KHA3 202114Z 14011KT 39/16 A2997 RMK A01 T03890164  RH  027%=      5-min Rain = 0
KHA3 202115Z 14012KT 39/16 A2997 RMK A01 T03900161  RH  026%=      5-min Rain = 0
KHA3 202116Z 14013KT 39/16 A2997 RMK A01 T03890162  RH  026%=      5-min Rain = 0
KHA3 202117Z 13011KT 39/16 A2997 RMK A01 T03870161  RH  026%=      5-min Rain = 0
KHA3 202118Z 13012KT 39/16 A2997 RMK A01 T03860158  RH  026%=      5-min Rain = 0
KHA3 202119Z 14007KT 38/16 A2997 RMK A01 T03840157  RH  026%=      5-min Rain = 0
KHA3 202120Z 15010KT 38/16 A2997 RMK A01 T03840159  RH  027%=      5-min Rain = 0
KHA3 202121Z 15006KT 38/16 A2997 RMK A01 T03840159  RH  027%=      5-min Rain = 0
KHA3 202122Z 12008KT 39/16 A2997 RMK A01 T03850162  RH  027%=      5-min Rain = 0
KHA3 202123Z 13014KT 39/16 A2997 RMK A01 T03870159  RH  026%=      5-min Rain = 0
KHA3 202124Z 18011KT 39/16 A2997 RMK A01 T03890158  RH  026%=      5-min Rain = 0
KHA3 202125Z 17010KT 39/16 A2997 RMK A01 T03900157  RH  026%=      5-min Rain = 0
KHA3 202126Z 18010KT 39/16 A2997 RMK A01 T03890156  RH  025%=      5-min Rain = 0
KHA3 202127Z 15009G15KT 39/16 A2997 RMK A01 T03870158  RH  026%=      5-min Rain = 0
KHA3 202128Z 17009KT 39/16 A2997 RMK A01 T03880160  RH  026%=      5-min Rain = 0
KHA3 202129Z 14010G15KT 39/16 A2997 RMK A01 T03920164  RH  026%=      5-min Rain = 0
KHA3 202130Z 12013KT 39/16 A2997 RMK A01 T03930160  RH  026%=      5-min Rain = 0
KHA3 202131Z 12015KT 39/16 A2997 RMK A01 T03900159  RH  026%=      5-min Rain = 0
KHA3 202132Z 14013KT 39/16 A2997 RMK A01 T03890160  RH  026%=      5-min Rain = 0
KHA3 202133Z 14013KT 39/16 A2997 RMK A01 T03890158  RH  026%=      5-min Rain = 0
KHA3 202134Z 12013KT 39/16 A2997 RMK A01 T03880158  RH  026%=      5-min Rain = 0
KHA3 202135Z 11012KT 39/16 A2997 RMK A01 T03880156  RH  026%=      5-min Rain = 0
KHA3 202136Z 12007KT 39/15 A2997 RMK A01 T03850153  RH  026%=      5-min Rain = 0
KHA3 202137Z 12010KT 38/16 A2997 RMK A01 T03840155  RH  026%=      5-min Rain = 0
KHA3 202138Z 13012KT 39/15 A2997 RMK A01 T03850153  RH  025%=      5-min Rain = 0
KHA3 202139Z 13013KT 39/15 A2997 RMK A01 T03870154  RH  025%=      5-min Rain = 0
KHA3 202140Z 12012KT 39/15 A2997 RMK A01 T03870152  RH  025%=      5-min Rain = 0
KHA3 202141Z 12012KT 39/15 A2997 RMK A01 T03870154  RH  025%=      5-min Rain = 0
KHA3 202142Z 12012KT 39/15 A2997 RMK A01 T03870151  RH  025%=      5-min Rain = 0
KHA3 202143Z 12009KT 39/15 A2996 RMK A01 T03870150  RH  025%=      5-min Rain = 0
KHA3 202144Z 12011KT 39/15 A2996 RMK A01 T03860151  RH  025%=      5-min Rain = 0
KHA3 202145Z 10009KT 39/15 A2996 RMK A01 T03880151  RH  025%=      5-min Rain = 0
KHA3 202146Z 12007KT 39/15 A2996 RMK A01 T03880150  RH  024%=      5-min Rain = 0
KHA3 202147Z 16006KT 39/15 A2996 RMK A01 T03880152  RH  025%=      5-min Rain = 0
KHA3 202148Z 12010G16KT 39/15 A2996 RMK A01 T03900154  RH  025%=      5-min Rain = 0
KHA3 202149Z 12015KT 39/15 A2996 RMK A01 T03920151  RH  024%=      5-min Rain = 0
KHA3 202150Z 13012KT 39/15 A2996 RMK A01 T03900151  RH  024%=      5-min Rain = 0
KHA3 202151Z 13013KT 39/15 A2996 RMK A01 T03880151  RH  025%=      5-min Rain = 0
KHA3 202152Z 14014KT 39/15 A2996 RMK A01 T03880151  RH  025%=      5-min Rain = 0
KHA3 202153Z 12013KT 39/15 A2996 RMK A01 T03880152  RH  025%=      5-min Rain = 0
KHA3 202154Z 13012KT 39/15 A2996 RMK A01 T03870151  RH  025%=      5-min Rain = 0
KHA3 202155Z 14012KT 39/15 A2996 RMK A01 T03870153  RH  025%=      5-min Rain = 0
KHA3 202156Z 15010KT 39/15 A2996 RMK A01 T03870151  RH  025%=      5-min Rain = 0
KHA3 202157Z 15012KT 39/16 A2996 RMK A01 T03880155  RH  025%=      5-min Rain = 0
KHA3 202158Z 16012KT 39/15 A2996 RMK A01 T03900153  RH  025%=      5-min Rain = 0
KHA3 202159Z 14014KT 39/15 A2996 RMK A01 T03910149  RH  024%=      5-min Rain = 0
KHA3 202200Z 14010KT 39/15 A2996 RMK A01 T03890149  RH  024%=      5-min Rain = 0
KHA3 202201Z 16013KT 39/15 A2996 RMK A01 T03880150  RH  024%=      5-min Rain = 0
KHA3 202202Z 14012KT 39/15 A2996 RMK A01 T03880149  RH  024%=      5-min Rain = 0
KHA3 202203Z 15011KT 39/15 A2996 RMK A01 T03890148  RH  024%=      5-min Rain = 0
KHA3 202204Z 13008KT 39/15 A2996 RMK A01 T03880146  RH  024%=      5-min Rain = 0
KHA3 202205Z 12007KT 39/15 A2996 RMK A01 T03870150  RH  025%=      5-min Rain = 0
KHA3 202206Z 14008KT 39/15 A2996 RMK A01 T03890147  RH  024%=      5-min Rain = 0
KHA3 202207Z 12005KT 39/14 A2996 RMK A01 T03890142  RH  023%=      5-min Rain = 0
KHA3 202208Z 15009KT 39/15 A2996 RMK A01 T03880147  RH  024%=      5-min Rain = 0
KHA3 202209Z 14013KT 39/15 A2996 RMK A01 T03900149  RH  024%=      5-min Rain = 0
KHA3 202210Z 14013KT 39/15 A2996 RMK A01 T03900148  RH  024%=      5-min Rain = 0
KHA3 202211Z 14010KT 39/15 A2996 RMK A01 T03890146  RH  024%=      5-min Rain = 0
KHA3 202212Z 15011KT 39/15 A2996 RMK A01 T03880150  RH  025%=      5-min Rain = 0
KHA3 202213Z 14010KT 39/15 A2996 RMK A01 T03890150  RH  025%=      5-min Rain = 0
KHA3 202214Z 17004KT 39/15 A2996 RMK A01 T03880145  RH  024%=      5-min Rain = 0
KHA3 202215Z 29002KT 39/14 A2995 RMK A01 T03850142  RH  024%=      5-min Rain = 0
KHA3 202216Z 15002KT 38/14 A2995 RMK A01 T03840144  RH  024%=      5-min Rain = 0
KHA3 202217Z 12004KT 39/15 A2995 RMK A01 T03850150  RH  025%=      5-min Rain = 0
KHA3 202218Z 13009KT 39/16 A2995 RMK A01 T03870155  RH  025%=      5-min Rain = 0
KHA3 202219Z 17010KT 39/16 A2995 RMK A01 T03890155  RH  025%=      5-min Rain = 0
KHA3 202220Z 17012KT 39/15 A2995 RMK A01 T03900153  RH  025%=      5-min Rain = 0
KHA3 202221Z 17011KT 39/15 A2996 RMK A01 T03880150  RH  025%=      5-min Rain = 0
KHA3 202222Z 15009KT 39/15 A2996 RMK A01 T03870151  RH  025%=      5-min Rain = 0
KHA3 202223Z 16008KT 39/15 A2996 RMK A01 T03860150  RH  025%=      5-min Rain = 0
KHA3 202224Z 17010G15KT 39/15 A2995 RMK A01 T03860152  RH  025%=      5-min Rain = 0
KHA3 202225Z 15012KT 39/15 A2996 RMK A01 T03860152  RH  025%=      5-min Rain = 0
KHA3 202226Z 17015KT 39/15 A2995 RMK A01 T03870154  RH  025%=      5-min Rain = 0
KHA3 202227Z 18014KT 39/15 A2995 RMK A01 T03870150  RH  025%=      5-min Rain = 0
KHA3 202228Z 18012KT 39/15 A2996 RMK A01 T03860151  RH  025%=      5-min Rain = 0
KHA3 202229Z 16011KT 39/15 A2996 RMK A01 T03860153  RH  025%=      5-min Rain = 0
KHA3 202230Z 15009KT 39/16 A2996 RMK A01 T03870155  RH  026%=      5-min Rain = 0
KHA3 202231Z 15007KT 39/15 A2995 RMK A01 T03870154  RH  025%=      5-min Rain = 0
KHA3 202232Z 13008KT 39/16 A2995 RMK A01 T03870157  RH  026%=      5-min Rain = 0
KHA3 202233Z 13010KT 39/16 A2995 RMK A01 T03880159  RH  026%=      5-min Rain = 0
KHA3 202234Z 18009KT 39/16 A2995 RMK A01 T03900161  RH  026%=      5-min Rain = 0
KHA3 202235Z 18012KT 39/16 A2995 RMK A01 T03920159  RH  025%=      5-min Rain = 0
KHA3 202236Z 18012KT 39/16 A2995 RMK A01 T03910156  RH  025%=      5-min Rain = 0
KHA3 202237Z 15010KT 39/16 A2995 RMK A01 T03880158  RH  026%=      5-min Rain = 0
KHA3 202238Z 14011KT 39/16 A2995 RMK A01 T03880155  RH  025%=      5-min Rain = 0
KHA3 202239Z 13013KT 39/16 A2995 RMK A01 T03870155  RH  025%=      5-min Rain = 0
KHA3 202240Z 13012KT 39/15 A2995 RMK A01 T03860153  RH  025%=      5-min Rain = 0
KHA3 202241Z 12015G20KT 39/15 A2995 RMK A01 T03850152  RH  025%=      5-min Rain = 0
KHA3 202242Z 12016KT 39/15 A2995 RMK A01 T03850152  RH  025%=      5-min Rain = 0
KHA3 202243Z 13014G19KT 39/15 A2995 RMK A01 T03850152  RH  025%=      5-min Rain = 0
KHA3 202244Z 14012KT 39/15 A2995 RMK A01 T03860153  RH  025%=      5-min Rain = 0
KHA3 202245Z 15012KT 39/15 A2995 RMK A01 T03860151  RH  025%=      5-min Rain = 0
KHA3 202246Z 14012KT 39/15 A2995 RMK A01 T03860151  RH  025%=      5-min Rain = 0
KHA3 202247Z 15013KT 39/15 A2995 RMK A01 T03860151  RH  025%=      5-min Rain = 0
KHA3 202248Z 15012KT 39/15 A2995 RMK A01 T03870150  RH  025%=      5-min Rain = 0
KHA3 202249Z 15010KT 39/15 A2995 RMK A01 T03870149  RH  025%=      5-min Rain = 0
KHA3 202250Z 15011KT 39/15 A2995 RMK A01 T03870150  RH  025%=      5-min Rain = 0
KHA3 202251Z 13014KT 39/15 A2995 RMK A01 T03860152  RH  025%=      5-min Rain = 0
KHA3 202252Z 13012KT 39/15 A2995 RMK A01 T03850152  RH  025%=      5-min Rain = 0
KHA3 202253Z 13009KT 39/15 A2996 RMK A01 T03850154  RH  026%=      5-min Rain = 0
KHA3 202254Z 13012G17KT 39/15 A2996 RMK A01 T03870153  RH  025%=      5-min Rain = 0
KHA3 202255Z 14014KT 39/15 A2996 RMK A01 T03870151  RH  025%=      5-min Rain = 0
KHA3 202256Z 15014KT 39/15 A2996 RMK A01 T03850150  RH  025%=      5-min Rain = 0
KHA3 202257Z 14013KT 38/15 A2996 RMK A01 T03830149  RH  025%=      5-min Rain = 0
KHA3 202258Z 13010KT 38/15 A2996 RMK A01 T03830149  RH  025%=      5-min Rain = 0
KHA3 202259Z 13008KT 38/15 A2996 RMK A01 T03830152  RH  026%=      5-min Rain = 0
KHA3 202300Z 14009KT 38/15 A2996 RMK A01 T03840151  RH  025%=      5-min Rain = 0
KHA3 202301Z 14010KT 39/15 A2996 RMK A01 T03850151  RH  025%=      5-min Rain = 0
KHA3 202302Z 16007KT 39/15 A2996 RMK A01 T03860152  RH  025%=      5-min Rain = 0
KHA3 202303Z 14009KT 39/15 A2996 RMK A01 T03860152  RH  025%=      5-min Rain = 0
KHA3 202304Z 14011KT 39/15 A2996 RMK A01 T03880153  RH  025%=      5-min Rain = 0
KHA3 202305Z 15010KT 39/15 A2996 RMK A01 T03890150  RH  025%=      5-min Rain = 0
KHA3 202306Z 14011KT 39/15 A2996 RMK A01 T03890150  RH  025%=      5-min Rain = 0
KHA3 202307Z 15011KT 39/15 A2996 RMK A01 T03880148  RH  024%=      5-min Rain = 0
KHA3 202308Z 15008KT 39/15 A2996 RMK A01 T03870149  RH  025%=      5-min Rain = 0
KHA3 202309Z 15011KT 39/15 A2996 RMK A01 T03870149  RH  025%=      5-min Rain = 0
KHA3 202310Z 14013KT 39/15 A2996 RMK A01 T03870146  RH  024%=      5-min Rain = 0
KHA3 202311Z 14011KT 39/15 A2996 RMK A01 T03850145  RH  024%=      5-min Rain = 0
KHA3 202312Z 14013KT 38/15 A2996 RMK A01 T03830145  RH  025%=      5-min Rain = 0
KHA3 202313Z 15011KT 38/15 A2996 RMK A01 T03820145  RH  025%=      5-min Rain = 0
KHA3 202314Z 16011KT 38/15 A2995 RMK A01 T03810147  RH  025%=      5-min Rain = 0
KHA3 202315Z 12010G15KT 38/15 A2995 RMK A01 T03810151  RH  026%=      5-min Rain = 0
KHA3 202316Z 15013KT 38/15 A2996 RMK A01 T03820151  RH  026%=      5-min Rain = 0
KHA3 202317Z 15011KT 38/15 A2996 RMK A01 T03820149  RH  025%=      5-min Rain = 0
KHA3 202318Z 15007KT 38/15 A2996 RMK A01 T03810150  RH  026%=      5-min Rain = 0
KHA3 202319Z 15005KT 38/15 A2995 RMK A01 T03810152  RH  026%=      5-min Rain = 0
KHA3 202320Z 15012G17KT 38/15 A2995 RMK A01 T03820150  RH  026%=      5-min Rain = 0
KHA3 202321Z 16011KT 38/15 A2995 RMK A01 T03820149  RH  025%=      5-min Rain = 0
KHA3 202322Z 15010KT 38/15 A2995 RMK A01 T03830150  RH  025%=      5-min Rain = 0
KHA3 202323Z 15009KT 38/15 A2995 RMK A01 T03820148  RH  025%=      5-min Rain = 0
KHA3 202324Z 14010KT 38/15 A2995 RMK A01 T03810148  RH  025%=      5-min Rain = 0
KHA3 202325Z 15011KT 38/15 A2995 RMK A01 T03810145  RH  025%=      5-min Rain = 0
KHA3 202326Z 14011KT 38/15 A2995 RMK A01 T03800145  RH  025%=      5-min Rain = 0
KHA3 202327Z 13010KT 38/14 A2995 RMK A01 T03790141  RH  024%=      5-min Rain = 0
KHA3 202328Z 13010KT 38/14 A2995 RMK A01 T03780143  RH  025%=      5-min Rain = 0
KHA3 202329Z 14010KT 38/15 A2995 RMK A01 T03780145  RH  025%=      5-min Rain = 0
KHA3 202330Z 13011KT 38/14 A2995 RMK A01 T03780144  RH  025%=      5-min Rain = 0
KHA3 202331Z 14010KT 38/14 A2995 RMK A01 T03780144  RH  025%=      5-min Rain = 0
KHA3 202332Z 14010KT 38/15 A2995 RMK A01 T03780146  RH  025%=      5-min Rain = 0
KHA3 202333Z 14009KT 38/15 A2995 RMK A01 T03780145  RH  025%=      5-min Rain = 0
KHA3 202334Z 13012KT 38/14 A2995 RMK A01 T03780144  RH  025%=      5-min Rain = 0
KHA3 202335Z 13012KT 38/15 A2995 RMK A01 T03780145  RH  025%=      5-min Rain = 0
KHA3 202336Z 13009KT 38/15 A2995 RMK A01 T03770146  RH  025%=      5-min Rain = 0
KHA3 202337Z 13009KT 38/15 A2995 RMK A01 T03770146  RH  025%=      5-min Rain = 0
KHA3 202338Z 15012KT 38/15 A2995 RMK A01 T03770145  RH  025%=      5-min Rain = 0
KHA3 202339Z 14010KT 38/14 A2995 RMK A01 T03770142  RH  025%=      5-min Rain = 0
KHA3 202340Z 14009KT 38/14 A2995 RMK A01 T03770141  RH  025%=      5-min Rain = 0
KHA3 202341Z 14009KT 38/14 A2995 RMK A01 T03760143  RH  025%=      5-min Rain = 0
KHA3 202342Z 13009KT 38/14 A2995 RMK A01 T03760144  RH  025%=      5-min Rain = 0
KHA3 202343Z 13013KT 38/14 A2995 RMK A01 T03760141  RH  025%=      5-min Rain = 0
KHA3 202344Z 13012KT 38/14 A2995 RMK A01 T03760140  RH  025%=      5-min Rain = 0
KHA3 202345Z 13011KT 38/14 A2995 RMK A01 T03750138  RH  024%=      5-min Rain = 0
KHA3 202346Z 12011G16KT 38/14 A2995 RMK A01 T03750139  RH  025%=      5-min Rain = 0
KHA3 202347Z 12014KT 38/14 A2995 RMK A01 T03750139  RH  025%=      5-min Rain = 0
KHA3 202348Z 12011KT 38/14 A2995 RMK A01 T03750140  RH  025%=      5-min Rain = 0
KHA3 202349Z 12013KT 38/14 A2995 RMK A01 T03750141  RH  025%=      5-min Rain = 0
KHA3 202350Z 12010KT 38/14 A2995 RMK A01 T03750141  RH  025%=      5-min Rain = 0
KHA3 202351Z 12010KT 38/15 A2995 RMK A01 T03750145  RH  026%=      5-min Rain = 0
KHA3 202352Z 13010KT 38/15 A2995 RMK A01 T03750145  RH  025%=      5-min Rain = 0
KHA3 202353Z 13010KT 38/14 A2995 RMK A01 T03750143  RH  025%=      5-min Rain = 0
KHA3 202354Z 14010KT 38/14 A2995 RMK A01 T03750144  RH  025%=      5-min Rain = 0
KHA3 202355Z 14012KT 38/15 A2995 RMK A01 T03750147  RH  026%=      5-min Rain = 0
KHA3 202356Z 14011KT 37/15 A2995 RMK A01 T03740150  RH  026%=      5-min Rain = 0
KHA3 202357Z 15011KT 37/15 A2995 RMK A01 T03740151  RH  027%=      5-min Rain = 0
KHA3 202358Z 14010KT 37/15 A2995 RMK A01 T03740150  RH  027%=      5-min Rain = 0
KHA3 202359Z 14008KT 37/15 A2995 RMK A01 T03740150  RH  027%=      5-min Rain = 0
KHA3 210000Z 13008KT 37/15 A2995 RMK A01 T03730153  RH  027%=      5-min Rain = 0
KHA3 210001Z 14009KT 37/15 A2995 RMK A01 T03730154  RH  027%=      5-min Rain = 0
KHA3 210002Z 13007KT 37/15 A2995 RMK A01 T03730154  RH  027%=      5-min Rain = 0
KHA3 210003Z 14006KT 37/16 A2995 RMK A01 T03720156  RH  028%=      5-min Rain = 0
KHA3 210004Z 14009KT 37/15 A2995 RMK A01 T03720153  RH  027%=      5-min Rain = 0
KHA3 210005Z 16007KT 37/15 A2995 RMK A01 T03720153  RH  027%=      5-min Rain = 0
KHA3 210006Z 17008KT 37/15 A2995 RMK A01 T03720145  RH  026%=      5-min Rain = 0
KHA3 210007Z 16007KT 37/14 A2995 RMK A01 T03720143  RH  026%=      5-min Rain = 0
KHA3 210008Z 16006KT 37/15 A2996 RMK A01 T03720146  RH  026%=      5-min Rain = 0
KHA3 210009Z 16011KT 37/15 A2996 RMK A01 T03720149  RH  027%=      5-min Rain = 0
KHA3 210010Z 15011KT 37/15 A2996 RMK A01 T03710152  RH  027%=      5-min Rain = 0
KHA3 210011Z 16011KT 37/16 A2996 RMK A01 T03710155  RH  028%=      5-min Rain = 0
KHA3 210012Z 16009KT 37/16 A2996 RMK A01 T03700156  RH  028%=      5-min Rain = 0
KHA3 210013Z 15008KT 37/16 A2996 RMK A01 T03690156  RH  028%=      5-min Rain = 0
KHA3 210014Z 15009KT 37/16 A2996 RMK A01 T03690158  RH  029%=      5-min Rain = 0
KHA3 210015Z 16009KT 37/16 A2996 RMK A01 T03690158  RH  029%=      5-min Rain = 0
KHA3 210016Z 16008KT 37/16 A2996 RMK A01 T03680159  RH  029%=      5-min Rain = 0
KHA3 210017Z 16009KT 37/16 A2996 RMK A01 T03680159  RH  029%=      5-min Rain = 0
KHA3 210018Z 17008KT 37/16 A2996 RMK A01 T03680159  RH  029%=      5-min Rain = 0
KHA3 210019Z 17007KT 37/16 A2996 RMK A01 T03670159  RH  029%=      5-min Rain = 0
KHA3 210020Z 17007KT 37/16 A2996 RMK A01 T03670159  RH  029%=      5-min Rain = 0
KHA3 210021Z 17009KT 37/16 A2996 RMK A01 T03670159  RH  029%=      5-min Rain = 0
KHA3 210022Z 17007KT 37/15 A2996 RMK A01 T03660154  RH  028%=      5-min Rain = 0
KHA3 210023Z 14007KT 37/16 A2996 RMK A01 T03660156  RH  029%=      5-min Rain = 0
KHA3 210024Z 14009KT 37/16 A2996 RMK A01 T03660158  RH  029%=      5-min Rain = 0
KHA3 210025Z 14010KT 37/16 A2996 RMK A01 T03670157  RH  029%=      5-min Rain = 0
KHA3 210026Z 14009KT 37/16 A2996 RMK A01 T03660157  RH  029%=      5-min Rain = 0
KHA3 210027Z 14010KT 37/16 A2996 RMK A01 T03660158  RH  029%=      5-min Rain = 0
KHA3 210028Z 14009KT 37/16 A2996 RMK A01 T03660159  RH  029%=      5-min Rain = 0
KHA3 210029Z 14009KT 37/16 A2996 RMK A01 T03670160  RH  030%=      5-min Rain = 0
KHA3 210030Z 14008KT 37/16 A2996 RMK A01 T03660160  RH  030%=      5-min Rain = 0
KHA3 210031Z 15010KT 37/16 A2996 RMK A01 T03660161  RH  030%=      5-min Rain = 0
KHA3 210032Z 15010KT 37/16 A2996 RMK A01 T03660162  RH  030%=      5-min Rain = 0
KHA3 210033Z 15010KT 37/16 A2996 RMK A01 T03650162  RH  030%=      5-min Rain = 0
KHA3 210034Z 14011KT 37/16 A2996 RMK A01 T03650163  RH  030%=      5-min Rain = 0
KHA3 210035Z 14010KT 36/16 A2996 RMK A01 T03640162  RH  030%=      5-min Rain = 0
KHA3 210036Z 14011KT 36/16 A2996 RMK A01 T03640163  RH  030%=      5-min Rain = 0
KHA3 210037Z 15009KT 36/16 A2996 RMK A01 T03640163  RH  031%=      5-min Rain = 0
KHA3 210038Z 15008KT 36/16 A2996 RMK A01 T03630164  RH  031%=      5-min Rain = 0
KHA3 210039Z 14008KT 36/17 A2996 RMK A01 T03620165  RH  031%=      5-min Rain = 0
KHA3 210040Z 15008KT 36/17 A2996 RMK A01 T03620165  RH  031%=      5-min Rain = 0
KHA3 210041Z 15007KT 36/17 A2996 RMK A01 T03610165  RH  031%=      5-min Rain = 0
KHA3 210042Z 15008KT 36/17 A2996 RMK A01 T03610166  RH  032%=      5-min Rain = 0
KHA3 210043Z 15009KT 36/17 A2996 RMK A01 T03600165  RH  032%=      5-min Rain = 0
KHA3 210044Z 14008KT 36/17 A2996 RMK A01 T03590165  RH  032%=      5-min Rain = 0
KHA3 210045Z 15007KT 36/17 A2996 RMK A01 T03590167  RH  032%=      5-min Rain = 0
KHA3 210046Z 15007KT 36/17 A2996 RMK A01 T03580168  RH  032%=      5-min Rain = 0
KHA3 210047Z 15008KT 36/17 A2996 RMK A01 T03570167  RH  032%=      5-min Rain = 0
KHA3 210048Z 15008KT 36/17 A2996 RMK A01 T03560167  RH  032%=      5-min Rain = 0
KHA3 210049Z 15007KT 36/17 A2996 RMK A01 T03560167  RH  033%=      5-min Rain = 0
KHA3 210050Z 15008KT 36/17 A2996 RMK A01 T03550168  RH  033%=      5-min Rain = 0
KHA3 210051Z 15011KT 36/17 A2996 RMK A01 T03550165  RH  032%=      5-min Rain = 0
KHA3 210052Z 15009KT 36/16 A2996 RMK A01 T03550163  RH  032%=      5-min Rain = 0
KHA3 210053Z 15009KT 36/16 A2996 RMK A01 T03550163  RH  032%=      5-min Rain = 0
KHA3 210054Z 15008KT 36/17 A2996 RMK A01 T03560166  RH  032%=      5-min Rain = 0
KHA3 210055Z 15010KT 36/17 A2996 RMK A01 T03550165  RH  032%=      5-min Rain = 0
KHA3 210056Z 15008KT 35/17 A2996 RMK A01 T03540165  RH  033%=      5-min Rain = 0
KHA3 210057Z 15009KT 35/17 A2996 RMK A01 T03530166  RH  033%=      5-min Rain = 0
KHA3 210058Z 15008KT 35/17 A2996 RMK A01 T03530166  RH  033%=      5-min Rain = 0
KHA3 210059Z 15008KT 35/17 A2996 RMK A01 T03520167  RH  033%=      5-min Rain = 0
KHA3 210100Z 14008KT 35/17 A2996 RMK A01 T03510167  RH  034%=      5-min Rain = 0
KHA3 210101Z 15009KT 35/17 A2996 RMK A01 T03500167  RH  034%=      5-min Rain = 0
KHA3 210102Z 14010KT 35/17 A2996 RMK A01 T03500166  RH  034%=      5-min Rain = 0
KHA3 210103Z 14009KT 35/17 A2996 RMK A01 T03500167  RH  034%=      5-min Rain = 0
KHA3 210104Z 15008KT 35/17 A2996 RMK A01 T03500168  RH  034%=      5-min Rain = 0
KHA3 210105Z 14009KT 35/17 A2996 RMK A01 T03490168  RH  034%=      5-min Rain = 0
KHA3 210106Z 14009KT 35/17 A2996 RMK A01 T03480168  RH  034%=      5-min Rain = 0
KHA3 210107Z 14009KT 35/17 A2996 RMK A01 T03470168  RH  034%=      5-min Rain = 0
KHA3 210108Z 14008KT 35/17 A2996 RMK A01 T03470168  RH  034%=      5-min Rain = 0
KHA3 210109Z 14009KT 35/17 A2996 RMK A01 T03470169  RH  035%=      5-min Rain = 0
KHA3 210110Z 15009KT 35/17 A2996 RMK A01 T03460168  RH  035%=      5-min Rain = 0
KHA3 210111Z 14009KT 35/17 A2996 RMK A01 T03460169  RH  035%=      5-min Rain = 0
KHA3 210112Z 15009KT 35/17 A2996 RMK A01 T03460168  RH  035%=      5-min Rain = 0
KHA3 210113Z 14008KT 35/17 A2996 RMK A01 T03460169  RH  035%=      5-min Rain = 0
KHA3 210114Z 14007KT 34/17 A2996 RMK A01 T03440170  RH  035%=      5-min Rain = 0
KHA3 210115Z 15008KT 34/17 A2996 RMK A01 T03420169  RH  036%=      5-min Rain = 0
KHA3 210116Z 14008KT 34/17 A2996 RMK A01 T03410170  RH  036%=      5-min Rain = 0
KHA3 210117Z 15007KT 34/17 A2996 RMK A01 T03400170  RH  036%=      5-min Rain = 0
KHA3 210118Z 15008KT 34/17 A2996 RMK A01 T03390170  RH  037%=      5-min Rain = 0
KHA3 210119Z 15008KT 34/17 A2997 RMK A01 T03390169  RH  036%=      5-min Rain = 0
KHA3 210120Z 15008KT 34/17 A2997 RMK A01 T03380169  RH  037%=      5-min Rain = 0
KHA3 210121Z 15007KT 34/17 A2997 RMK A01 T03380170  RH  037%=      5-min Rain = 0
KHA3 210122Z 14007KT 34/17 A2997 RMK A01 T03370170  RH  037%=      5-min Rain = 0
KHA3 210123Z 15008KT 34/17 A2997 RMK A01 T03360170  RH  037%=      5-min Rain = 0
KHA3 210124Z 14008KT 34/17 A2997 RMK A01 T03350169  RH  037%=      5-min Rain = 0
KHA3 210125Z 14008KT 34/17 A2997 RMK A01 T03350169  RH  037%=      5-min Rain = 0
KHA3 210126Z 14009KT 34/17 A2997 RMK A01 T03350168  RH  037%=      5-min Rain = 0
KHA3 210127Z 14008KT 34/17 A2997 RMK A01 T03360167  RH  037%=      5-min Rain = 0
KHA3 210128Z 14009KT 34/17 A2997 RMK A01 T03370167  RH  036%=      5-min Rain = 0
KHA3 210129Z 14009KT 34/17 A2997 RMK A01 T03380167  RH  036%=      5-min Rain = 0
KHA3 210130Z 14009KT 34/17 A2997 RMK A01 T03380167  RH  036%=      5-min Rain = 0
KHA3 210131Z 14008KT 34/17 A2997 RMK A01 T03390167  RH  036%=      5-min Rain = 0
KHA3 210132Z 14010KT 34/17 A2997 RMK A01 T03390167  RH  036%=      5-min Rain = 0
KHA3 210133Z 14011KT 34/17 A2997 RMK A01 T03390166  RH  036%=      5-min Rain = 0
KHA3 210134Z 14010KT 34/17 A2997 RMK A01 T03390166  RH  036%=      5-min Rain = 0
KHA3 210135Z 14010KT 34/17 A2997 RMK A01 T03400166  RH  035%=      5-min Rain = 0
KHA3 210136Z 14009KT 34/17 A2997 RMK A01 T03400167  RH  036%=      5-min Rain = 0
KHA3 210137Z 14009KT 34/17 A2997 RMK A01 T03390167  RH  036%=      5-min Rain = 0
KHA3 210138Z 14009KT 34/17 A2997 RMK A01 T03380166  RH  036%=      5-min Rain = 0
KHA3 210139Z 14008KT 34/17 A2997 RMK A01 T03380166  RH  036%=      5-min Rain = 0
KHA3 210140Z 14009KT 34/17 A2997 RMK A01 T03370166  RH  036%=      5-min Rain = 0
KHA3 210141Z 14008KT 34/17 A2997 RMK A01 T03370167  RH  036%=      5-min Rain = 0
KHA3 210142Z 14008KT 34/17 A2997 RMK A01 T03370167  RH  036%=      5-min Rain = 0
KHA3 210143Z 14008KT 34/17 A2997 RMK A01 T03350167  RH  037%=      5-min Rain = 0
KHA3 210144Z 14008KT 34/17 A2997 RMK A01 T03350167  RH  037%=      5-min Rain = 0
KHA3 210145Z 14008KT 33/17 A2997 RMK A01 T03340167  RH  037%=      5-min Rain = 0
KHA3 210146Z 14007KT 33/17 A2997 RMK A01 T03330168  RH  037%=      5-min Rain = 0
KHA3 210147Z 14007KT 33/17 A2997 RMK A01 T03310168  RH  038%=      5-min Rain = 0
KHA3 210148Z 14008KT 33/17 A2997 RMK A01 T03300168  RH  038%=      5-min Rain = 0
KHA3 210149Z 14007KT 33/17 A2997 RMK A01 T03290168  RH  038%=      5-min Rain = 0
KHA3 210150Z 14007KT 33/17 A2997 RMK A01 T03290168  RH  038%=      5-min Rain = 0
KHA3 210151Z 14007KT 33/17 A2997 RMK A01 T03290168  RH  038%=      5-min Rain = 0
KHA3 210152Z 14008KT 33/17 A2997 RMK A01 T03280168  RH  038%=      5-min Rain = 0
KHA3 210153Z 14007KT 33/17 A2997 RMK A01 T03280168  RH  038%=      5-min Rain = 0
KHA3 210154Z 14008KT 33/17 A2997 RMK A01 T03270168  RH  039%=      5-min Rain = 0
KHA3 210155Z 14008KT 33/17 A2997 RMK A01 T03270168  RH  039%=      5-min Rain = 0
KHA3 210156Z 14008KT 33/17 A2997 RMK A01 T03270168  RH  039%=      5-min Rain = 0
KHA3 210157Z 15008KT 33/17 A2997 RMK A01 T03270168  RH  039%=      5-min Rain = 0
KHA3 210158Z 15008KT 33/17 A2997 RMK A01 T03260168  RH  039%=      5-min Rain = 0
KHA3 210159Z 15008KT 33/17 A2997 RMK A01 T03260168  RH  039%=      5-min Rain = 0
KHA3 210200Z 15008KT 33/17 A2998 RMK A01 T03250168  RH  039%=      5-min Rain = 0
KHA3 210201Z 15008KT 32/17 A2998 RMK A01 T03240168  RH  039%=      5-min Rain = 0
KHA3 210202Z 15008KT 32/17 A2998 RMK A01 T03240168  RH  039%=      5-min Rain = 0
KHA3 210203Z 15008KT 32/17 A2998 RMK A01 T03230168  RH  040%=      5-min Rain = 0
KHA3 210204Z 15008KT 32/17 A2998 RMK A01 T03220168  RH  040%=      5-min Rain = 0
KHA3 210205Z 15008KT 32/17 A2998 RMK A01 T03220168  RH  040%=      5-min Rain = 0
KHA3 210206Z 15008KT 32/17 A2998 RMK A01 T03220168  RH  040%=      5-min Rain = 0
KHA3 210207Z 15007KT 32/17 A2998 RMK A01 T03220167  RH  040%=      5-min Rain = 0
KHA3 210208Z 15007KT 32/17 A2998 RMK A01 T03210168  RH  040%=      5-min Rain = 0
KHA3 210209Z 15007KT 32/17 A2998 RMK A01 T03210168  RH  040%=      5-min Rain = 0
KHA3 210210Z 15007KT 32/17 A2998 RMK A01 T03200168  RH  040%=      5-min Rain = 0
KHA3 210211Z 15008KT 32/17 A2998 RMK A01 T03190168  RH  040%=      5-min Rain = 0
KHA3 210212Z 15008KT 32/17 A2998 RMK A01 T03190168  RH  040%=      5-min Rain = 0
KHA3 210213Z 15008KT 32/17 A2998 RMK A01 T03180168  RH  041%=      5-min Rain = 0
KHA3 210214Z 15008KT 32/17 A2998 RMK A01 T03180168  RH  040%=      5-min Rain = 0
KHA3 210215Z 14008KT 32/17 A2998 RMK A01 T03180168  RH  041%=      5-min Rain = 0
KHA3 210216Z 15008KT 32/17 A2998 RMK A01 T03180167  RH  041%=      5-min Rain = 0
KHA3 210217Z 14008KT 32/17 A2998 RMK A01 T03180168  RH  041%=      5-min Rain = 0
KHA3 210218Z 15008KT 32/17 A2998 RMK A01 T03170168  RH  041%=      5-min Rain = 0
KHA3 210219Z 15008KT 32/17 A2998 RMK A01 T03170167  RH  041%=      5-min Rain = 0
KHA3 210220Z 14008KT 32/17 A2998 RMK A01 T03160167  RH  041%=      5-min Rain = 0
KHA3 210221Z 15008KT 32/17 A2998 RMK A01 T03160167  RH  041%=      5-min Rain = 0
KHA3 210222Z 15008KT 32/17 A2998 RMK A01 T03160168  RH  041%=      5-min Rain = 0
KHA3 210223Z 15008KT 32/17 A2998 RMK A01 T03150168  RH  041%=      5-min Rain = 0
KHA3 210224Z 15008KT 32/17 A2998 RMK A01 T03150168  RH  041%=      5-min Rain = 0
KHA3 210225Z 15007KT 31/17 A2998 RMK A01 T03140167  RH  041%=      5-min Rain = 0
KHA3 210226Z 15008KT 31/17 A2998 RMK A01 T03130168  RH  042%=      5-min Rain = 0
KHA3 210227Z 15008KT 31/17 A2998 RMK A01 T03130168  RH  042%=      5-min Rain = 0
KHA3 210228Z 15008KT 31/17 A2998 RMK A01 T03120167  RH  042%=      5-min Rain = 0
KHA3 210229Z 15008KT 31/17 A2998 RMK A01 T03120167  RH  042%=      5-min Rain = 0
KHA3 210230Z 15008KT 31/17 A2998 RMK A01 T03120167  RH  042%=      5-min Rain = 0
KHA3 210231Z 15008KT 31/17 A2998 RMK A01 T03120167  RH  042%=      5-min Rain = 0
KHA3 210232Z 15007KT 31/17 A2998 RMK A01 T03120167  RH  042%=      5-min Rain = 0
KHA3 210233Z 15008KT 31/17 A2998 RMK A01 T03120166  RH  042%=      5-min Rain = 0
KHA3 210234Z 15008KT 31/17 A2998 RMK A01 T03120166  RH  042%=      5-min Rain = 0
KHA3 210235Z 15008KT 31/17 A2998 RMK A01 T03120165  RH  041%=      5-min Rain = 0
KHA3 210236Z 15008KT 31/17 A2998 RMK A01 T03120165  RH  041%=      5-min Rain = 0
KHA3 210237Z 15008KT 31/16 A2999 RMK A01 T03120164  RH  041%=      5-min Rain = 0
KHA3 210238Z 15008KT 31/16 A2999 RMK A01 T03130164  RH  041%=      5-min Rain = 0
KHA3 210239Z 15008KT 31/17 A2999 RMK A01 T03130165  RH  041%=      5-min Rain = 0
KHA3 210240Z 14007KT 31/17 A2999 RMK A01 T03130165  RH  041%=      5-min Rain = 0
KHA3 210241Z 15008KT 31/16 A2999 RMK A01 T03130164  RH  041%=      5-min Rain = 0
KHA3 210242Z 15008KT 31/16 A2999 RMK A01 T03120164  RH  041%=      5-min Rain = 0
KHA3 210243Z 15008KT 31/16 A2999 RMK A01 T03120164  RH  041%=      5-min Rain = 0
KHA3 210244Z 15008KT 31/16 A2999 RMK A01 T03120164  RH  041%=      5-min Rain = 0
KHA3 210245Z 15008KT 31/17 A2999 RMK A01 T03120165  RH  041%=      5-min Rain = 0
KHA3 210246Z 15008KT 31/17 A2999 RMK A01 T03110165  RH  041%=      5-min Rain = 0
KHA3 210247Z 15008KT 31/16 A2999 RMK A01 T03100164  RH  041%=      5-min Rain = 0
KHA3 210248Z 15008KT 31/16 A2999 RMK A01 T03100163  RH  041%=      5-min Rain = 0
KHA3 210249Z 15008KT 31/16 A2999 RMK A01 T03100163  RH  041%=      5-min Rain = 0
KHA3 210250Z 15008KT 31/16 A2999 RMK A01 T03100163  RH  041%=      5-min Rain = 0
KHA3 210251Z 15008KT 31/16 A2999 RMK A01 T03100164  RH  041%=      5-min Rain = 0
KHA3 210252Z 15008KT 31/16 A30 RMK A01 T03100164  RH  041%=      5-min Rain = 0
KHA3 210253Z 15008KT 31/16 A30 RMK A01 T03100163  RH  041%=      5-min Rain = 0
KHA3 210254Z 15008KT 31/16 A30 RMK A01 T03100163  RH  041%=      5-min Rain = 0
KHA3 210255Z 15008KT 31/16 A30 RMK A01 T03100163  RH  041%=      5-min Rain = 0
KHA3 210256Z 15009KT 31/16 A30 RMK A01 T03100163  RH  041%=      5-min Rain = 0
KHA3 210257Z 15009KT 31/16 A30 RMK A01 T03100163  RH  041%=      5-min Rain = 0
KHA3 210258Z 15009KT 31/16 A30 RMK A01 T03100163  RH  041%=      5-min Rain = 0
KHA3 210259Z 15009KT 31/16 A30 RMK A01 T03100163  RH  041%=      5-min Rain = 0
KHA3 210300Z 15008KT 31/16 A30 RMK A01 T03110162  RH  041%=      5-min Rain = 0
KHA3 210301Z 15009KT 31/16 A30 RMK A01 T03110164  RH  041%=      5-min Rain = 0
KHA3 210302Z 15008KT 31/16 A30 RMK A01 T03110164  RH  041%=      5-min Rain = 0
KHA3 210303Z 15009KT 31/16 A30 RMK A01 T03110163  RH  041%=      5-min Rain = 0
KHA3 210304Z 15009KT 31/16 A30 RMK A01 T03110163  RH  041%=      5-min Rain = 0
KHA3 210305Z 15009KT 31/16 A30 RMK A01 T03120164  RH  041%=      5-min Rain = 0
KHA3 210306Z 15008KT 31/16 A30 RMK A01 T03120164  RH  041%=      5-min Rain = 0
KHA3 210307Z 14009KT 31/16 A30 RMK A01 T03120164  RH  041%=      5-min Rain = 0
KHA3 210308Z 15010KT 31/16 A30 RMK A01 T03130164  RH  041%=      5-min Rain = 0
KHA3 210309Z 15009KT 31/16 A30 RMK A01 T03140164  RH  041%=      5-min Rain = 0
KHA3 210310Z 15009KT 31/17 A30 RMK A01 T03140165  RH  041%=      5-min Rain = 0
KHA3 210311Z 15009KT 31/17 A30 RMK A01 T03140165  RH  041%=      5-min Rain = 0
KHA3 210312Z 15009KT 31/17 A30 RMK A01 T03140165  RH  041%=      5-min Rain = 0
KHA3 210313Z 15009KT 31/17 A3001 RMK A01 T03140165  RH  041%=      5-min Rain = 0
KHA3 210314Z 16008KT 31/17 A3001 RMK A01 T03140166  RH  041%=      5-min Rain = 0
KHA3 210315Z 16008KT 31/17 A3001 RMK A01 T03140166  RH  041%=      5-min Rain = 0
KHA3 210316Z 16008KT 31/17 A3001 RMK A01 T03140166  RH  041%=      5-min Rain = 0
KHA3 210317Z 16008KT 31/17 A3001 RMK A01 T03130167  RH  041%=      5-min Rain = 0
KHA3 210318Z 15008KT 31/17 A3001 RMK A01 T03130166  RH  041%=      5-min Rain = 0
KHA3 210319Z 15008KT 31/17 A3001 RMK A01 T03130166  RH  041%=      5-min Rain = 0
KHA3 210320Z 16008KT 31/17 A3001 RMK A01 T03130166  RH  041%=      5-min Rain = 0
KHA3 210321Z 15008KT 31/17 A3001 RMK A01 T03120166  RH  042%=      5-min Rain = 0
KHA3 210322Z 16008KT 31/17 A3001 RMK A01 T03120166  RH  042%=      5-min Rain = 0
KHA3 210323Z 15008KT 31/17 A3001 RMK A01 T03120166  RH  042%=      5-min Rain = 0
KHA3 210324Z 15008KT 31/17 A3001 RMK A01 T03120166  RH  042%=      5-min Rain = 0
KHA3 210325Z 15008KT 31/17 A3001 RMK A01 T03120166  RH  042%=      5-min Rain = 0
KHA3 210326Z 15008KT 31/17 A3001 RMK A01 T03110166  RH  042%=      5-min Rain = 0
KHA3 210327Z 15008KT 31/17 A3001 RMK A01 T03120166  RH  042%=      5-min Rain = 0
KHA3 210328Z 15008KT 31/17 A3001 RMK A01 T03120166  RH  042%=      5-min Rain = 0
KHA3 210329Z 15008KT 31/17 A3001 RMK A01 T03110167  RH  042%=      5-min Rain = 0
KHA3 210330Z 15008KT 31/17 A3001 RMK A01 T03100167  RH  042%=      5-min Rain = 0
KHA3 210331Z 15008KT 31/17 A3001 RMK A01 T03100166  RH  042%=      5-min Rain = 0
KHA3 210332Z 15008KT 31/17 A3001 RMK A01 T03100167  RH  042%=      5-min Rain = 0
KHA3 210333Z 15008KT 31/17 A3001 RMK A01 T03090168  RH  043%=      5-min Rain = 0
KHA3 210334Z 15008KT 31/17 A3001 RMK A01 T03080168  RH  043%=      5-min Rain = 0
KHA3 210335Z 15008KT 31/17 A3001 RMK A01 T03070168  RH  043%=      5-min Rain = 0
KHA3 210336Z 15009KT 31/17 A3001 RMK A01 T03060167  RH  043%=      5-min Rain = 0
KHA3 210337Z 15009KT 31/17 A3001 RMK A01 T03070168  RH  043%=      5-min Rain = 0
KHA3 210338Z 15009KT 31/17 A3001 RMK A01 T03070168  RH  043%=      5-min Rain = 0
KHA3 210339Z 15009KT 31/17 A3001 RMK A01 T03070168  RH  043%=      5-min Rain = 0
KHA3 210340Z 15008KT 31/17 A3001 RMK A01 T03070168  RH  043%=      5-min Rain = 0
KHA3 210341Z 15009KT 31/17 A3001 RMK A01 T03060168  RH  043%=      5-min Rain = 0
KHA3 210342Z 15009KT 31/17 A3001 RMK A01 T03060168  RH  043%=      5-min Rain = 0
KHA3 210343Z 15009KT 31/17 A3001 RMK A01 T03060168  RH  043%=      5-min Rain = 0
KHA3 210344Z 15009KT 31/17 A3002 RMK A01 T03060168  RH  043%=      5-min Rain = 0
KHA3 210345Z 15008KT 31/17 A3002 RMK A01 T03060168  RH  043%=      5-min Rain = 0
KHA3 210346Z 15009KT 31/17 A3002 RMK A01 T03060168  RH  044%=      5-min Rain = 0
KHA3 210347Z 15008KT 31/17 A3002 RMK A01 T03060168  RH  044%=      5-min Rain = 0
KHA3 210348Z 15008KT 31/17 A3002 RMK A01 T03060168  RH  044%=      5-min Rain = 0
KHA3 210349Z 15008KT 31/17 A3002 RMK A01 T03060168  RH  044%=      5-min Rain = 0
KHA3 210350Z 15008KT 31/17 A3002 RMK A01 T03060168  RH  044%=      5-min Rain = 0
KHA3 210351Z 15008KT 31/17 A3002 RMK A01 T03050168  RH  044%=      5-min Rain = 0
KHA3 210352Z 15009KT 31/17 A3002 RMK A01 T03050169  RH  044%=      5-min Rain = 0
KHA3 210353Z 15008KT 30/17 A3002 RMK A01 T03040168  RH  044%=      5-min Rain = 0
KHA3 210354Z 15008KT 30/17 A3002 RMK A01 T03040168  RH  044%=      5-min Rain = 0
KHA3 210355Z 15009KT 30/17 A3002 RMK A01 T03040169  RH  044%=      5-min Rain = 0
KHA3 210356Z 15009KT 30/17 A3002 RMK A01 T03040168  RH  044%=      5-min Rain = 0
KHA3 210357Z 15009KT 30/17 A3002 RMK A01 T03040169  RH  044%=      5-min Rain = 0
KHA3 210358Z 15008KT 30/17 A3002 RMK A01 T03040169  RH  044%=      5-min Rain = 0
KHA3 210359Z 15008KT 30/17 A3002 RMK A01 T03030169  RH  044%=      5-min Rain = 0
KHA3 210400Z 15009KT 30/17 A3002 RMK A01 T03030169  RH  045%=      5-min Rain = 0
KHA3 210401Z 15009KT 30/17 A3002 RMK A01 T03030169  RH  045%=      5-min Rain = 0
KHA3 210402Z 15009KT 30/17 A3002 RMK A01 T03030169  RH  045%=      5-min Rain = 0
KHA3 210403Z 15009KT 30/17 A3002 RMK A01 T03030169  RH  045%=      5-min Rain = 0
KHA3 210404Z 15009KT 30/17 A3002 RMK A01 T03020169  RH  045%=      5-min Rain = 0
KHA3 210405Z 15009KT 30/17 A3001 RMK A01 T03020169  RH  045%=      5-min Rain = 0
KHA3 210406Z 15009KT 30/17 A3001 RMK A01 T03020169  RH  045%=      5-min Rain = 0
KHA3 210407Z 15008KT 30/17 A3001 RMK A01 T03020168  RH  045%=      5-min Rain = 0
KHA3 210408Z 16009KT 30/17 A3001 RMK A01 T03020169  RH  045%=      5-min Rain = 0
KHA3 210409Z 15009KT 30/17 A3001 RMK A01 T03020169  RH  045%=      5-min Rain = 0
KHA3 210410Z 16009KT 30/17 A3001 RMK A01 T03020169  RH  045%=      5-min Rain = 0
KHA3 210411Z 15009KT 30/17 A3001 RMK A01 T03020169  RH  045%=      5-min Rain = 0
KHA3 210412Z 15009KT 30/17 A3001 RMK A01 T03020169  RH  045%=      5-min Rain = 0
KHA3 210413Z 15009KT 30/17 A3001 RMK A01 T03010169  RH  045%=      5-min Rain = 0
KHA3 210414Z 15009KT 30/17 A3001 RMK A01 T03010170  RH  045%=      5-min Rain = 0
KHA3 210415Z 15009KT 30/17 A3001 RMK A01 T03010170  RH  045%=      5-min Rain = 0
KHA3 210416Z 15010KT 30/17 A3001 RMK A01 T03010169  RH  045%=      5-min Rain = 0
KHA3 210417Z 15009KT 30/17 A3001 RMK A01 T03010168  RH  045%=      5-min Rain = 0
KHA3 210418Z 15009KT 30/17 A3001 RMK A01 T03010169  RH  045%=      5-min Rain = 0
KHA3 210419Z 15010KT 30/17 A3001 RMK A01 T03020169  RH  045%=      5-min Rain = 0
KHA3 210420Z 15009KT 30/17 A3001 RMK A01 T03020169  RH  045%=      5-min Rain = 0
KHA3 210421Z 15009KT 30/17 A3001 RMK A01 T03020170  RH  045%=      5-min Rain = 0
KHA3 210422Z 15009KT 30/17 A3001 RMK A01 T03010169  RH  045%=      5-min Rain = 0
KHA3 210423Z 15010KT 30/17 A3001 RMK A01 T03010169  RH  045%=      5-min Rain = 0
KHA3 210424Z 15009KT 30/17 A3001 RMK A01 T03010169  RH  045%=      5-min Rain = 0
KHA3 210425Z 15009KT 30/17 A3001 RMK A01 T03010169  RH  045%=      5-min Rain = 0
KHA3 210426Z 15009KT 30/17 A3001 RMK A01 T03010170  RH  045%=      5-min Rain = 0
KHA3 210427Z 15009KT 30/17 A3001 RMK A01 T03010170  RH  045%=      5-min Rain = 0
KHA3 210428Z 15009KT 30/17 A3001 RMK A01 T03010170  RH  045%=      5-min Rain = 0
KHA3 210429Z 15009KT 30/17 A3001 RMK A01 T03000170  RH  046%=      5-min Rain = 0
KHA3 210430Z 15009KT 30/17 A3001 RMK A01 T03000170  RH  046%=      5-min Rain = 0
KHA3 210431Z 15009KT 30/17 A3001 RMK A01 T02990170  RH  046%=      5-min Rain = 0
KHA3 210432Z 15008KT 30/17 A3001 RMK A01 T02990170  RH  046%=      5-min Rain = 0
KHA3 210433Z 15009KT 30/17 A3001 RMK A01 T02990170  RH  046%=      5-min Rain = 0
KHA3 210434Z 15009KT 30/17 A3001 RMK A01 T02990170  RH  046%=      5-min Rain = 0
KHA3 210435Z 15009KT 30/17 A3001 RMK A01 T02990170  RH  046%=      5-min Rain = 0
KHA3 210436Z 15009KT 30/17 A3001 RMK A01 T02990170  RH  046%=      5-min Rain = 0
KHA3 210437Z 15009KT 30/17 A3002 RMK A01 T02990170  RH  046%=      5-min Rain = 0
KHA3 210438Z 15009KT 30/17 A3002 RMK A01 T02990169  RH  046%=      5-min Rain = 0
KHA3 210439Z 15009KT 30/17 A3002 RMK A01 T02990170  RH  046%=      5-min Rain = 0
KHA3 210440Z 15009KT 30/17 A3001 RMK A01 T02990170  RH  046%=      5-min Rain = 0
KHA3 210441Z 15009KT 30/17 A3001 RMK A01 T03000170  RH  046%=      5-min Rain = 0
KHA3 210442Z 15010KT 30/17 A3001 RMK A01 T02990170  RH  046%=      5-min Rain = 0
KHA3 210443Z 15009KT 30/17 A3001 RMK A01 T02990170  RH  046%=      5-min Rain = 0
KHA3 210444Z 15010KT 30/17 A3001 RMK A01 T03000170  RH  046%=      5-min Rain = 0
KHA3 210445Z 15009KT 30/17 A3001 RMK A01 T03000170  RH  045%=      5-min Rain = 0
KHA3 210446Z 15009KT 30/17 A3001 RMK A01 T03000170  RH  046%=      5-min Rain = 0
KHA3 210447Z 15009KT 30/17 A3001 RMK A01 T03000170  RH  046%=      5-min Rain = 0
KHA3 210448Z 15009KT 30/17 A3001 RMK A01 T02990170  RH  046%=      5-min Rain = 0
KHA3 210449Z 15009KT 30/17 A3001 RMK A01 T02990171  RH  046%=      5-min Rain = 0
KHA3 210450Z 15009KT 30/17 A3001 RMK A01 T02990171  RH  046%=      5-min Rain = 0
KHA3 210451Z 15010KT 30/17 A3001 RMK A01 T02980170  RH  046%=      5-min Rain = 0
KHA3 210452Z 15009KT 30/17 A3001 RMK A01 T02980170  RH  046%=      5-min Rain = 0
KHA3 210453Z 15010KT 30/17 A3001 RMK A01 T02990169  RH  046%=      5-min Rain = 0
KHA3 210454Z 15009KT 30/17 A3001 RMK A01 T02990170  RH  046%=      5-min Rain = 0
KHA3 210455Z 15010KT 30/17 A3001 RMK A01 T02990170  RH  046%=      5-min Rain = 0
KHA3 210456Z 15010KT 30/17 A3001 RMK A01 T02990170  RH  046%=      5-min Rain = 0
KHA3 210457Z 15010KT 30/17 A3001 RMK A01 T03000170  RH  046%=      5-min Rain = 0
KHA3 210458Z 15010KT 30/17 A3001 RMK A01 T03000171  RH  046%=      5-min Rain = 0
KHA3 210459Z 15009KT 30/17 A3001 RMK A01 T02990170  RH  046%=      5-min Rain = 0

Page generated in 0.1225 seconds.